| time (UTC) | temp F | wind direction | speed knots | gust knots | rain 1hr in | rain 24hr in | rain mn in | humidity % | barometer mb |
| 20260906125659 | 74 | 158 | 0.0 | 0.0 | 0.00 | 0.07 | 0.00 | 89 | 1014.1 |
| 20260906125558 | 74 | 158 | 0.0 | 0.0 | 0.00 | 0.07 | 0.00 | 89 | 1014.1 |
| 20260906125458 | 74 | 158 | 0.0 | 0.0 | 0.00 | 0.07 | 0.00 | 89 | 1014.2 |
| 20260906125358 | 74 | 162 | 0.0 | 0.0 | 0.00 | 0.07 | 0.00 | 89 | 1014.1 |
| 20260906125159 | 74 | 162 | 0.0 | 0.0 | 0.00 | 0.07 | 0.00 | 89 | 1014.0 |
| 20260906125058 | 73 | 165 | 0.0 | 0.0 | 0.00 | 0.07 | 0.00 | 89 | 1014.0 |
| 20260906124858 | 73 | 165 | 0.0 | 0.0 | 0.00 | 0.07 | 0.00 | 89 | 1014.1 |
| 20260906124758 | 73 | 165 | 0.0 | 0.0 | 0.00 | 0.07 | 0.00 | 89 | 1014.1 |
| 20260906124658 | 73 | 165 | 0.0 | 0.0 | 0.00 | 0.07 | 0.00 | 89 | 1014.1 |
| 20260906124600 | 73 | 165 | 0.0 | 0.0 | 0.00 | 0.07 | 0.00 | 89 | 1013.4 |
| 20260906124458 | 72 | 165 | 0.0 | 0.0 | 0.00 | 0.07 | 0.00 | 89 | 1014.0 |
| 20260906124257 | 72 | 165 | 0.0 | 0.0 | 0.00 | 0.07 | 0.00 | 89 | 1014.1 |
| 20260906124157 | 72 | 165 | 0.0 | 0.0 | 0.00 | 0.07 | 0.00 | 89 | 1014.0 |
| 20260906124057 | 72 | 165 | 0.0 | 0.0 | 0.00 | 0.07 | 0.00 | 89 | 1014.0 |
| 20260906123857 | 72 | 165 | 0.0 | 0.0 | 0.00 | 0.07 | 0.00 | 89 | 1014.0 |
| 20260906123757 | 72 | 165 | 0.0 | 0.0 | 0.00 | 0.07 | 0.00 | 89 | 1013.9 |
| 20260906123657 | 72 | 165 | 0.0 | 0.0 | 0.00 | 0.07 | 0.00 | 89 | 1013.9 |
| 20260906123558 | 72 | 165 | 0.0 | 0.0 | 0.00 | 0.07 | 0.00 | 89 | 1013.9 |
| 20260906123458 | 72 | 165 | 0.0 | 0.0 | 0.00 | 0.07 | 0.00 | 89 | 1013.9 |
| 20260906123258 | 71 | 165 | 0.0 | 0.0 | 0.00 | 0.07 | 0.00 | 89 | 1013.9 |
| 20260906123157 | 71 | 165 | 0.0 | 0.0 | 0.00 | 0.07 | 0.00 | 89 | 1014.0 |
| 20260906123104 | 71 | 165 | 0.0 | 0.0 | 0.00 | 0.07 | 0.00 | 89 | 1013.2 |
| 20260906122957 | 71 | 165 | 0.0 | 0.0 | 0.00 | 0.07 | 0.00 | 89 | 1013.9 |
| 20260906122858 | 71 | 165 | 0.0 | 0.0 | 0.00 | 0.07 | 0.00 | 89 | 1013.9 |
| 20260906122757 | 71 | 167 | 0.0 | 0.0 | 0.00 | 0.07 | 0.00 | 89 | 1013.8 |
| 20260906122659 | 71 | 241 | 0.0 | 0.0 | 0.00 | 0.07 | 0.00 | 89 | 1014.0 |
| 20260906122458 | 71 | 241 | 0.0 | 0.0 | 0.00 | 0.07 | 0.00 | 89 | 1014.0 |
| 20260906122357 | 71 | 240 | 0.0 | 0.0 | 0.00 | 0.07 | 0.00 | 89 | 1013.9 |
| 20260906122257 | 71 | 241 | 0.0 | 0.0 | 0.00 | 0.07 | 0.00 | 89 | 1014.0 |
| 20260906122157 | 71 | 241 | 0.0 | 0.0 | 0.00 | 0.07 | 0.00 | 89 | 1013.9 |
| 20260906122058 | 71 | 240 | 0.0 | 0.0 | 0.00 | 0.07 | 0.00 | 89 | 1013.9 |
| 20260906121957 | 71 | 240 | 0.0 | 0.0 | 0.00 | 0.07 | 0.00 | 89 | 1014.0 |
| 20260906121857 | 71 | 241 | 0.0 | 0.0 | 0.00 | 0.07 | 0.00 | 89 | 1014.1 |
| 20260906121757 | 71 | 242 | 0.0 | 0.0 | 0.00 | 0.07 | 0.00 | 89 | 1014.0 |
| 20260906121658 | 71 | 242 | 0.0 | 0.0 | 0.00 | 0.07 | 0.00 | 89 | 1014.0 |
| 20260906121558 | 71 | 242 | 0.0 | 0.0 | 0.00 | 0.07 | 0.00 | 89 | 1013.3 |
| 20260906121457 | 71 | 242 | 0.0 | 0.0 | 0.00 | 0.07 | 0.00 | 89 | 1014.0 |
| 20260906121358 | 71 | 242 | 0.0 | 0.0 | 0.00 | 0.07 | 0.00 | 89 | 1014.1 |
| 20260906121257 | 71 | 242 | 0.0 | 0.0 | 0.00 | 0.07 | 0.00 | 89 | 1014.0 |
| 20260906121158 | 71 | 157 | 0.0 | 0.0 | 0.00 | 0.07 | 0.00 | 89 | 1014.1 |
| 20260906121057 | 71 | 157 | 0.0 | 0.0 | 0.00 | 0.07 | 0.00 | 89 | 1014.0 |
| 20260906120858 | 71 | 157 | 0.0 | 0.0 | 0.00 | 0.07 | 0.00 | 89 | 1014.0 |
| 20260906120758 | 71 | 157 | 0.0 | 0.0 | 0.00 | 0.07 | 0.00 | 89 | 1014.1 |
| 20260906120657 | 71 | 156 | 0.0 | 0.0 | 0.00 | 0.07 | 0.00 | 89 | 1013.9 |
| 20260906120557 | 71 | 156 | 0.0 | 0.0 | 0.00 | 0.07 | 0.00 | 89 | 1013.9 |
| 20260906120458 | 71 | 157 | 0.0 | 0.0 | 0.00 | 0.07 | 0.00 | 89 | 1014.0 |
| 20260906120357 | 71 | 156 | 0.0 | 0.0 | 0.00 | 0.07 | 0.00 | 89 | 1013.8 |
| 20260906120258 | 71 | 157 | 0.0 | 0.0 | 0.00 | 0.07 | 0.00 | 89 | 1013.9 |
| 20260906120157 | 71 | 156 | 0.0 | 0.0 | 0.00 | 0.07 | 0.00 | 89 | 1013.9 |
| 20260906120104 | 71 | 157 | 0.0 | 0.0 | 0.00 | 0.07 | 0.00 | 89 | 1013.1 |
| 20260906120058 | 71 | 157 | 0.0 | 0.0 | 0.00 | 0.07 | 0.00 | 89 | 1013.8 |
| 20260906115958 | 71 | 157 | 0.0 | 0.0 | 0.00 | 0.07 | 0.00 | 89 | 1013.8 |
| 20260906115758 | 71 | 156 | 0.0 | 0.0 | 0.00 | 0.07 | 0.00 | 89 | 1013.8 |
| 20260906115557 | 71 | 157 | 0.0 | 0.0 | 0.00 | 0.07 | 0.00 | 89 | 1013.8 |
| 20260906115458 | 70 | 156 | 0.0 | 0.0 | 0.00 | 0.07 | 0.00 | 89 | 1013.9 |
| 20260906115357 | 71 | 157 | 0.0 | 0.0 | 0.00 | 0.07 | 0.00 | 89 | 1013.9 |
| 20260906115258 | 70 | 157 | 0.0 | 0.0 | 0.00 | 0.07 | 0.00 | 89 | 1013.8 |
| 20260906115157 | 70 | 156 | 0.0 | 0.0 | 0.00 | 0.07 | 0.00 | 89 | 1013.9 |
| 20260906114958 | 70 | 156 | 0.0 | 0.0 | 0.00 | 0.07 | 0.00 | 89 | 1013.9 |
| 20260906114858 | 70 | 156 | 0.0 | 0.0 | 0.00 | 0.07 | 0.00 | 89 | 1014.0 |
| 20260906114557 | 70 | 156 | 0.0 | 0.0 | 0.00 | 0.07 | 0.00 | 89 | 1013.8 |
| 20260906114358 | 70 | 156 | 0.0 | 0.0 | 0.00 | 0.07 | 0.00 | 89 | 1013.9 |
| 20260906114258 | 70 | 156 | 0.0 | 0.0 | 0.00 | 0.07 | 0.00 | 89 | 1013.8 |
| 20260906114157 | 70 | 156 | 0.0 | 0.0 | 0.00 | 0.07 | 0.00 | 89 | 1013.8 |
| 20260906114057 | 70 | 157 | 0.0 | 0.0 | 0.00 | 0.07 | 0.00 | 89 | 1013.9 |
| 20260906113958 | 70 | 156 | 0.0 | 0.0 | 0.00 | 0.07 | 0.00 | 89 | 1013.9 |
| 20260906113857 | 70 | 156 | 0.0 | 0.0 | 0.00 | 0.07 | 0.00 | 89 | 1013.8 |
| 20260906113758 | 70 | 156 | 0.0 | 0.0 | 0.00 | 0.07 | 0.00 | 89 | 1013.8 |
| 20260906113658 | 70 | 157 | 0.0 | 0.0 | 0.00 | 0.07 | 0.00 | 89 | 1013.8 |
| 20260906113557 | 70 | 157 | 0.0 | 0.0 | 0.00 | 0.07 | 0.00 | 89 | 1013.8 |
| 20260906113458 | 70 | 157 | 0.0 | 0.0 | 0.00 | 0.07 | 0.00 | 89 | 1013.8 |
| 20260906113257 | 70 | 156 | 0.0 | 0.0 | 0.00 | 0.07 | 0.00 | 89 | 1013.7 |
| 20260906113157 | 70 | 157 | 0.0 | 0.0 | 0.00 | 0.07 | 0.00 | 89 | 1013.7 |
| 20260906113058 | 70 | 156 | 0.0 | 0.0 | 0.00 | 0.07 | 0.00 | 89 | 1012.9 |
| 20260906112957 | 70 | 157 | 0.0 | 0.0 | 0.00 | 0.07 | 0.00 | 89 | 1013.7 |
| 20260906112857 | 70 | 157 | 0.0 | 0.0 | 0.00 | 0.07 | 0.00 | 89 | 1013.5 |
| 20260906112757 | 70 | 156 | 0.0 | 0.0 | 0.00 | 0.07 | 0.00 | 89 | 1013.7 |
| 20260906112658 | 70 | 157 | 0.0 | 0.0 | 0.00 | 0.07 | 0.00 | 89 | 1013.7 |
| 20260906112558 | 70 | 156 | 0.0 | 0.0 | 0.00 | 0.07 | 0.00 | 89 | 1013.6 |
| 20260906112458 | 70 | 156 | 0.0 | 0.0 | 0.00 | 0.07 | 0.00 | 89 | 1013.6 |
| 20260906112358 | 70 | 156 | 0.0 | 0.0 | 0.00 | 0.07 | 0.00 | 89 | 1013.6 |
| 20260906112257 | 70 | 157 | 0.0 | 0.0 | 0.00 | 0.07 | 0.00 | 89 | 1013.7 |
| 20260906112058 | 70 | 156 | 0.0 | 0.0 | 0.00 | 0.07 | 0.00 | 89 | 1013.6 |
| 20260906111958 | 70 | 157 | 0.0 | 0.0 | 0.00 | 0.07 | 0.00 | 89 | 1013.6 |
| 20260906111857 | 70 | 156 | 0.0 | 0.0 | 0.00 | 0.07 | 0.00 | 89 | 1013.6 |
| 20260906111757 | 70 | 157 | 0.0 | 0.0 | 0.00 | 0.07 | 0.00 | 89 | 1013.6 |
| 20260906111658 | 70 | 157 | 0.0 | 0.0 | 0.00 | 0.07 | 0.00 | 89 | 1013.6 |
| 20260906111557 | 70 | 157 | 0.0 | 0.0 | 0.00 | 0.07 | 0.00 | 89 | 1012.9 |
| 20260906111458 | 70 | 157 | 0.0 | 0.0 | 0.00 | 0.07 | 0.00 | 89 | 1013.7 |
| 20260906111258 | 70 | 157 | 0.0 | 0.0 | 0.00 | 0.07 | 0.00 | 89 | 1013.7 |
| 20260906111159 | 70 | 156 | 0.0 | 0.0 | 0.00 | 0.07 | 0.00 | 89 | 1013.6 |
| 20260906111057 | 70 | 156 | 0.0 | 0.0 | 0.00 | 0.07 | 0.00 | 89 | 1013.6 |
| 20260906110957 | 70 | 156 | 0.0 | 0.0 | 0.00 | 0.07 | 0.00 | 89 | 1013.6 |
| 20260906110858 | 70 | 157 | 0.0 | 0.0 | 0.00 | 0.07 | 0.00 | 89 | 1013.5 |
| 20260906110757 | 70 | 157 | 0.0 | 0.0 | 0.00 | 0.07 | 0.00 | 89 | 1013.5 |
| 20260906110658 | 70 | 157 | 0.0 | 0.0 | 0.00 | 0.07 | 0.00 | 89 | 1013.5 |
| 20260906110557 | 70 | 156 | 0.0 | 0.0 | 0.00 | 0.07 | 0.00 | 89 | 1013.4 |
| 20260906110500 | 70 | 157 | 0.0 | 0.0 | 0.00 | 0.07 | 0.00 | 89 | 1013.4 |
| 20260906110358 | 70 | 157 | 0.0 | 0.0 | 0.00 | 0.07 | 0.00 | 89 | 1013.4 |
| 20260906110258 | 70 | 156 | 0.0 | 0.0 | 0.00 | 0.07 | 0.00 | 89 | 1013.3 |
| 20260906110100 | 70 | 156 | 0.0 | 0.0 | 0.00 | 0.07 | 0.00 | 89 | 1012.6 |
| 20260906110058 | 70 | 156 | 0.0 | 0.0 | 0.00 | 0.07 | 0.00 | 89 | 1013.3 |
| 20260906105959 | 70 | 157 | 0.0 | 0.0 | 0.00 | 0.07 | 0.00 | 89 | 1013.3 |
| 20260906105857 | 70 | 157 | 0.0 | 0.0 | 0.00 | 0.07 | 0.00 | 89 | 1013.3 |
| 20260906105758 | 70 | 156 | 0.0 | 0.0 | 0.00 | 0.07 | 0.00 | 89 | 1013.2 |
| 20260906105557 | 70 | 157 | 0.0 | 0.0 | 0.00 | 0.07 | 0.00 | 89 | 1013.3 |
| 20260906105458 | 70 | 157 | 0.0 | 0.0 | 0.00 | 0.07 | 0.00 | 89 | 1013.2 |
| 20260906105358 | 70 | 156 | 0.0 | 0.0 | 0.00 | 0.07 | 0.00 | 89 | 1013.4 |
| 20260906105158 | 70 | 156 | 0.0 | 0.0 | 0.00 | 0.07 | 0.00 | 89 | 1013.3 |
| 20260906104957 | 70 | 156 | 0.0 | 0.0 | 0.00 | 0.07 | 0.00 | 89 | 1013.3 |
| 20260906104857 | 70 | 195 | 0.0 | 0.0 | 0.00 | 0.07 | 0.00 | 89 | 1013.2 |
| 20260906104757 | 70 | 196 | 0.0 | 0.0 | 0.00 | 0.07 | 0.00 | 89 | 1013.2 |
| 20260906104659 | 70 | 196 | 0.0 | 0.0 | 0.00 | 0.07 | 0.00 | 89 | 1013.2 |
| 20260906104558 | 70 | 195 | 0.0 | 0.0 | 0.00 | 0.07 | 0.00 | 89 | 1013.2 |
| 20260906104457 | 70 | 195 | 0.0 | 0.0 | 0.00 | 0.07 | 0.00 | 89 | 1013.2 |
| 20260906104357 | 70 | 196 | 0.0 | 0.0 | 0.00 | 0.07 | 0.00 | 89 | 1013.2 |
| 20260906104257 | 70 | 195 | 0.0 | 0.0 | 0.00 | 0.07 | 0.00 | 89 | 1013.2 |
| 20260906104158 | 70 | 195 | 0.0 | 0.0 | 0.00 | 0.07 | 0.00 | 89 | 1013.2 |
| 20260906104058 | 70 | 195 | 0.0 | 0.0 | 0.00 | 0.07 | 0.00 | 89 | 1013.2 |
| 20260906103956 | 70 | 195 | 0.0 | 0.0 | 0.00 | 0.07 | 0.00 | 89 | 1013.1 |
| 20260906103857 | 70 | 196 | 0.0 | 0.0 | 0.00 | 0.07 | 0.00 | 89 | 1013.1 |
| 20260906103757 | 70 | 195 | 0.0 | 0.0 | 0.00 | 0.07 | 0.00 | 89 | 1013.2 |
| 20260906103557 | 70 | 196 | 0.0 | 0.0 | 0.00 | 0.07 | 0.00 | 89 | 1013.0 |
| 20260906103458 | 70 | 196 | 0.0 | 0.0 | 0.00 | 0.07 | 0.00 | 89 | 1013.1 |
| 20260906103357 | 70 | 195 | 0.0 | 0.0 | 0.00 | 0.07 | 0.00 | 89 | 1013.0 |
| 20260906103259 | 70 | 195 | 0.0 | 0.0 | 0.00 | 0.07 | 0.00 | 89 | 1013.1 |
| 20260906103058 | 70 | 195 | 0.0 | 0.0 | 0.00 | 0.07 | 0.00 | 90 | 1013.0 |
| 20260906102958 | 70 | 195 | 0.0 | 0.0 | 0.00 | 0.07 | 0.00 | 90 | 1013.0 |
| 20260906102857 | 70 | 195 | 0.0 | 0.0 | 0.00 | 0.07 | 0.00 | 90 | 1013.0 |
| 20260906102758 | 70 | 195 | 0.0 | 0.0 | 0.00 | 0.07 | 0.00 | 90 | 1013.0 |
| 20260906102657 | 70 | 195 | 0.0 | 0.0 | 0.00 | 0.07 | 0.00 | 90 | 1013.0 |
| 20260906102557 | 70 | 195 | 0.0 | 0.0 | 0.00 | 0.07 | 0.00 | 90 | 1013.0 |
| 20260906102457 | 70 | 196 | 0.0 | 0.0 | 0.00 | 0.07 | 0.00 | 90 | 1013.0 |
| 20260906102357 | 70 | 195 | 0.0 | 0.0 | 0.00 | 0.07 | 0.00 | 90 | 1012.9 |
| 20260906102257 | 70 | 195 | 0.0 | 0.0 | 0.00 | 0.07 | 0.00 | 90 | 1013.0 |
| 20260906102158 | 70 | 195 | 0.0 | 0.0 | 0.00 | 0.07 | 0.00 | 90 | 1013.0 |
| 20260906101957 | 70 | 195 | 0.0 | 0.0 | 0.00 | 0.07 | 0.00 | 90 | 1012.9 |
| 20260906101857 | 70 | 195 | 0.0 | 0.0 | 0.00 | 0.07 | 0.00 | 90 | 1013.1 |
| 20260906101758 | 70 | 196 | 0.0 | 0.0 | 0.00 | 0.07 | 0.00 | 90 | 1013.1 |
| 20260906101659 | 70 | 195 | 0.0 | 0.0 | 0.00 | 0.07 | 0.00 | 90 | 1013.0 |
| 20260906101558 | 70 | 195 | 0.0 | 0.0 | 0.00 | 0.07 | 0.00 | 90 | 1013.0 |
| 20260906101357 | 70 | 195 | 0.0 | 0.0 | 0.00 | 0.07 | 0.00 | 90 | 1012.9 |
| 20260906101258 | 70 | 195 | 0.0 | 0.0 | 0.00 | 0.07 | 0.00 | 90 | 1013.0 |
| 20260906101157 | 70 | 195 | 0.0 | 0.0 | 0.00 | 0.07 | 0.00 | 90 | 1012.9 |
| 20260906100958 | 70 | 195 | 0.0 | 0.0 | 0.00 | 0.07 | 0.00 | 90 | 1012.8 |
| 20260906100857 | 70 | 196 | 0.0 | 0.0 | 0.00 | 0.07 | 0.00 | 90 | 1012.8 |
| 20260906100758 | 70 | 195 | 0.0 | 0.0 | 0.00 | 0.07 | 0.00 | 90 | 1012.8 |
| 20260906100657 | 70 | 195 | 0.0 | 0.0 | 0.00 | 0.07 | 0.00 | 90 | 1012.8 |
| 20260906100557 | 70 | 196 | 0.0 | 0.0 | 0.00 | 0.07 | 0.00 | 90 | 1012.8 |
| 20260906100457 | 70 | 195 | 0.0 | 0.0 | 0.00 | 0.07 | 0.00 | 90 | 1012.7 |
| 20260906100358 | 70 | 196 | 0.0 | 0.0 | 0.00 | 0.07 | 0.00 | 90 | 1012.7 |
| 20260906100257 | 70 | 195 | 0.0 | 0.0 | 0.00 | 0.07 | 0.00 | 90 | 1012.8 |
| 20260906100158 | 70 | 195 | 0.0 | 0.0 | 0.00 | 0.07 | 0.00 | 90 | 1012.8 |
| 20260906100058 | 70 | 195 | 0.0 | 0.0 | 0.00 | 0.07 | 0.00 | 90 | 1012.7 |
| 20260906095957 | 70 | 195 | 0.0 | 0.0 | 0.00 | 0.07 | 0.00 | 90 | 1012.7 |
| 20260906095859 | 70 | 196 | 0.0 | 0.0 | 0.00 | 0.07 | 0.00 | 90 | 1012.7 |
| 20260906095758 | 70 | 196 | 0.0 | 0.0 | 0.00 | 0.07 | 0.00 | 90 | 1012.7 |
| 20260906095657 | 70 | 196 | 0.0 | 0.0 | 0.00 | 0.07 | 0.00 | 90 | 1012.8 |
| 20260906095558 | 70 | 195 | 0.0 | 0.0 | 0.00 | 0.07 | 0.00 | 90 | 1012.7 |
| 20260906095456 | 70 | 195 | 0.0 | 0.0 | 0.00 | 0.07 | 0.00 | 90 | 1012.7 |
| 20260906095158 | 70 | 195 | 0.0 | 0.0 | 0.00 | 0.07 | 0.00 | 90 | 1012.6 |
| 20260906094957 | 70 | 195 | 0.0 | 0.0 | 0.00 | 0.07 | 0.00 | 90 | 1012.6 |
| 20260906094857 | 70 | 195 | 0.0 | 0.0 | 0.00 | 0.07 | 0.00 | 90 | 1012.6 |
| 20260906094658 | 70 | 196 | 0.0 | 0.0 | 0.00 | 0.07 | 0.00 | 90 | 1012.6 |
| 20260906094557 | 70 | 195 | 0.0 | 0.0 | 0.00 | 0.07 | 0.00 | 90 | 1011.8 |
| 20260906094457 | 70 | 195 | 0.0 | 0.0 | 0.00 | 0.07 | 0.00 | 90 | 1012.6 |
| 20260906094358 | 70 | 195 | 0.0 | 0.0 | 0.00 | 0.07 | 0.00 | 90 | 1012.6 |
| 20260906094157 | 70 | 195 | 0.0 | 0.0 | 0.00 | 0.07 | 0.00 | 90 | 1012.5 |
| 20260906094058 | 70 | 195 | 0.0 | 0.0 | 0.00 | 0.07 | 0.00 | 90 | 1012.5 |
| 20260906093958 | 70 | 195 | 0.0 | 0.0 | 0.00 | 0.07 | 0.00 | 90 | 1012.4 |
| 20260906093858 | 70 | 195 | 0.0 | 0.0 | 0.00 | 0.07 | 0.00 | 90 | 1012.5 |
| 20260906093758 | 70 | 195 | 0.0 | 0.0 | 0.00 | 0.07 | 0.00 | 90 | 1012.4 |
| 20260906093657 | 70 | 195 | 0.0 | 0.0 | 0.00 | 0.07 | 0.00 | 90 | 1012.4 |
| 20260906093558 | 70 | 195 | 0.0 | 0.0 | 0.00 | 0.07 | 0.00 | 90 | 1012.5 |
| 20260906093458 | 70 | 195 | 0.0 | 0.0 | 0.00 | 0.07 | 0.00 | 90 | 1012.4 |
| 20260906093358 | 70 | 196 | 0.0 | 0.0 | 0.00 | 0.07 | 0.00 | 90 | 1012.3 |
| 20260906093258 | 70 | 195 | 0.0 | 0.0 | 0.00 | 0.07 | 0.00 | 90 | 1012.4 |
| 20260906093158 | 70 | 196 | 0.0 | 0.0 | 0.00 | 0.07 | 0.00 | 90 | 1012.4 |
| 20260906093115 | 70 | 195 | 0.0 | 0.0 | 0.00 | 0.07 | 0.00 | 90 | 1011.6 |
| 20260906093058 | 70 | 195 | 0.0 | 0.0 | 0.00 | 0.07 | 0.00 | 90 | 1012.4 |
| 20260906092958 | 70 | 195 | 0.0 | 0.0 | 0.00 | 0.07 | 0.00 | 90 | 1012.4 |
| 20260906092857 | 70 | 195 | 0.0 | 0.0 | 0.00 | 0.07 | 0.00 | 90 | 1012.3 |
| 20260906092759 | 70 | 195 | 0.0 | 0.0 | 0.00 | 0.07 | 0.00 | 90 | 1012.3 |
| 20260906092657 | 70 | 196 | 0.0 | 0.0 | 0.00 | 0.07 | 0.00 | 90 | 1012.2 |
| 20260906092558 | 70 | 196 | 0.0 | 0.0 | 0.00 | 0.07 | 0.00 | 90 | 1012.3 |
| 20260906092357 | 70 | 196 | 0.0 | 0.0 | 0.00 | 0.07 | 0.00 | 90 | 1012.3 |
| 20260906092057 | 70 | 195 | 0.0 | 0.0 | 0.00 | 0.07 | 0.00 | 90 | 1012.1 |
| 20260906091957 | 70 | 195 | 0.0 | 0.0 | 0.00 | 0.07 | 0.00 | 90 | 1012.0 |
| 20260906091859 | 70 | 195 | 0.0 | 0.0 | 0.00 | 0.07 | 0.00 | 90 | 1012.2 |
| 20260906091757 | 70 | 195 | 0.0 | 0.0 | 0.00 | 0.07 | 0.00 | 90 | 1012.1 |
| 20260906091657 | 70 | 195 | 0.0 | 0.0 | 0.00 | 0.07 | 0.00 | 90 | 1012.1 |
| 20260906091558 | 70 | 195 | 0.0 | 0.0 | 0.00 | 0.07 | 0.00 | 90 | 1011.3 |
| 20260906091457 | 70 | 195 | 0.0 | 0.0 | 0.00 | 0.07 | 0.00 | 90 | 1012.0 |
| 20260906091357 | 70 | 195 | 0.0 | 0.0 | 0.00 | 0.07 | 0.00 | 90 | 1012.1 |
| 20260906091257 | 70 | 195 | 0.0 | 0.0 | 0.00 | 0.07 | 0.00 | 90 | 1012.1 |
| 20260906091157 | 70 | 195 | 0.0 | 0.0 | 0.00 | 0.07 | 0.00 | 90 | 1012.1 |
| 20260906091057 | 70 | 195 | 0.0 | 0.0 | 0.00 | 0.07 | 0.00 | 90 | 1011.9 |
| 20260906090957 | 70 | 195 | 0.0 | 0.0 | 0.00 | 0.07 | 0.00 | 90 | 1012.0 |
| 20260906090858 | 70 | 196 | 0.0 | 0.0 | 0.00 | 0.07 | 0.00 | 90 | 1012.0 |
| 20260906090757 | 70 | 195 | 0.0 | 0.0 | 0.00 | 0.07 | 0.00 | 90 | 1012.0 |
| 20260906090658 | 70 | 196 | 0.0 | 0.0 | 0.00 | 0.07 | 0.00 | 90 | 1011.9 |
| 20260906090557 | 70 | 196 | 0.0 | 0.0 | 0.00 | 0.07 | 0.00 | 90 | 1011.9 |
| 20260906090458 | 70 | 195 | 0.0 | 0.0 | 0.00 | 0.07 | 0.00 | 90 | 1011.8 |
| 20260906090358 | 70 | 195 | 0.0 | 0.0 | 0.00 | 0.07 | 0.00 | 90 | 1011.7 |
| 20260906090257 | 70 | 196 | 0.0 | 0.0 | 0.00 | 0.07 | 0.00 | 90 | 1011.8 |
| 20260906090157 | 70 | 197 | 0.0 | 0.0 | 0.00 | 0.07 | 0.00 | 90 | 1011.8 |
| 20260906090113 | 70 | 197 | 0.0 | 0.0 | 0.00 | 0.07 | 0.00 | 90 | 1011.0 |
| 20260906090057 | 70 | 197 | 0.0 | 0.0 | 0.00 | 0.07 | 0.00 | 90 | 1011.8 |
| 20260906085958 | 70 | 197 | 0.0 | 0.0 | 0.00 | 0.07 | 0.00 | 90 | 1011.8 |
| 20260906085857 | 70 | 197 | 0.0 | 0.0 | 0.00 | 0.07 | 0.00 | 90 | 1011.8 |
| 20260906085757 | 70 | 197 | 0.0 | 0.0 | 0.00 | 0.07 | 0.00 | 90 | 1011.9 |
| 20260906085657 | 70 | 197 | 0.0 | 0.0 | 0.00 | 0.07 | 0.00 | 90 | 1011.8 |
| 20260906085558 | 70 | 197 | 0.0 | 0.0 | 0.00 | 0.07 | 0.00 | 90 | 1011.8 |
| 20260906085457 | 70 | 197 | 0.0 | 0.0 | 0.00 | 0.07 | 0.00 | 90 | 1011.7 |
| 20260906085357 | 70 | 197 | 0.0 | 0.0 | 0.00 | 0.07 | 0.00 | 90 | 1011.8 |
| 20260906085257 | 70 | 197 | 0.0 | 0.0 | 0.00 | 0.07 | 0.00 | 90 | 1011.9 |
| 20260906085158 | 70 | 197 | 0.0 | 0.0 | 0.00 | 0.07 | 0.00 | 90 | 1011.8 |
| 20260906085058 | 70 | 197 | 0.0 | 0.0 | 0.00 | 0.07 | 0.00 | 90 | 1011.8 |
| 20260906084858 | 70 | 197 | 0.0 | 0.0 | 0.00 | 0.07 | 0.00 | 90 | 1011.8 |
| 20260906084757 | 70 | 197 | 0.0 | 0.0 | 0.00 | 0.07 | 0.00 | 90 | 1011.8 |
| 20260906084657 | 70 | 197 | 0.0 | 0.0 | 0.00 | 0.07 | 0.00 | 90 | 1011.8 |
| 20260906084558 | 70 | 197 | 0.0 | 0.0 | 0.00 | 0.07 | 0.00 | 90 | 1011.0 |
| 20260906084357 | 70 | 197 | 0.0 | 0.0 | 0.00 | 0.07 | 0.00 | 90 | 1011.7 |
| 20260906084257 | 70 | 197 | 0.0 | 0.0 | 0.00 | 0.07 | 0.00 | 90 | 1011.8 |
| 20260906084057 | 70 | 197 | 0.0 | 0.0 | 0.00 | 0.07 | 0.00 | 90 | 1011.7 |
| 20260906083957 | 70 | 197 | 0.0 | 0.0 | 0.00 | 0.07 | 0.00 | 90 | 1011.7 |
| 20260906083857 | 70 | 197 | 0.0 | 0.0 | 0.00 | 0.07 | 0.00 | 90 | 1011.7 |
| 20260906083757 | 70 | 197 | 0.0 | 0.0 | 0.00 | 0.07 | 0.00 | 90 | 1011.7 |
| 20260906083657 | 70 | 197 | 0.0 | 0.0 | 0.00 | 0.07 | 0.00 | 90 | 1011.7 |
| 20260906083557 | 70 | 197 | 0.0 | 0.0 | 0.00 | 0.07 | 0.00 | 90 | 1011.8 |
| 20260906083457 | 70 | 197 | 0.0 | 0.0 | 0.00 | 0.07 | 0.00 | 90 | 1011.8 |
| 20260906083158 | 70 | 197 | 0.0 | 0.0 | 0.00 | 0.07 | 0.00 | 90 | 1011.8 |
| 20260906083057 | 70 | 197 | 0.0 | 0.0 | 0.00 | 0.07 | 0.00 | 90 | 1011.1 |
| 20260906082957 | 70 | 197 | 0.0 | 0.0 | 0.00 | 0.07 | 0.00 | 90 | 1011.8 |
| 20260906082857 | 70 | 197 | 0.0 | 0.0 | 0.00 | 0.07 | 0.00 | 90 | 1011.8 |
| 20260906082758 | 70 | 197 | 0.0 | 0.0 | 0.00 | 0.07 | 0.00 | 90 | 1011.8 |
| 20260906082657 | 71 | 197 | 0.0 | 0.0 | 0.00 | 0.07 | 0.00 | 90 | 1011.8 |
| 20260906082557 | 71 | 197 | 0.0 | 0.0 | 0.00 | 0.07 | 0.00 | 90 | 1011.8 |
| 20260906082457 | 71 | 197 | 0.0 | 0.0 | 0.00 | 0.07 | 0.00 | 90 | 1011.9 |
| 20260906082357 | 71 | 197 | 0.0 | 0.0 | 0.00 | 0.07 | 0.00 | 90 | 1011.9 |
| 20260906082257 | 71 | 197 | 0.0 | 0.0 | 0.00 | 0.07 | 0.00 | 90 | 1011.9 |
| 20260906082157 | 71 | 197 | 0.0 | 0.0 | 0.00 | 0.07 | 0.00 | 90 | 1011.9 |
| 20260906082057 | 71 | 197 | 0.0 | 0.0 | 0.00 | 0.07 | 0.00 | 90 | 1011.9 |
| 20260906081958 | 71 | 197 | 0.0 | 0.0 | 0.00 | 0.07 | 0.00 | 90 | 1011.8 |
| 20260906081858 | 71 | 197 | 0.0 | 0.0 | 0.00 | 0.07 | 0.00 | 90 | 1011.9 |
| 20260906081757 | 71 | 197 | 0.0 | 0.0 | 0.00 | 0.07 | 0.00 | 90 | 1011.8 |
| 20260906081657 | 71 | 197 | 0.0 | 0.0 | 0.00 | 0.07 | 0.00 | 90 | 1011.8 |
| 20260906081559 | 71 | 197 | 0.0 | 0.0 | 0.00 | 0.07 | 0.00 | 90 | 1011.0 |
| 20260906081557 | 71 | 197 | 0.0 | 0.0 | 0.00 | 0.07 | 0.00 | 90 | 1011.7 |
| 20260906081457 | 71 | 197 | 0.0 | 0.0 | 0.00 | 0.07 | 0.00 | 90 | 1011.8 |
| 20260906080958 | 71 | 197 | 0.0 | 0.0 | 0.00 | 0.07 | 0.00 | 90 | 1011.7 |
| 20260906080857 | 71 | 197 | 0.0 | 0.0 | 0.00 | 0.07 | 0.00 | 90 | 1011.6 |
| 20260906080757 | 71 | 197 | 0.0 | 0.0 | 0.00 | 0.07 | 0.00 | 90 | 1011.6 |
| 20260906080659 | 71 | 197 | 0.0 | 0.0 | 0.00 | 0.07 | 0.00 | 90 | 1011.7 |
| 20260906080559 | 71 | 197 | 0.0 | 0.0 | 0.00 | 0.07 | 0.00 | 90 | 1011.7 |
| 20260906080457 | 71 | 197 | 0.0 | 0.0 | 0.00 | 0.07 | 0.00 | 90 | 1011.7 |
| 20260906080257 | 71 | 197 | 0.0 | 0.0 | 0.00 | 0.07 | 0.00 | 90 | 1011.7 |
| 20260906080157 | 71 | 197 | 0.0 | 0.0 | 0.00 | 0.07 | 0.00 | 90 | 1011.6 |
| 20260906080057 | 71 | 197 | 0.0 | 0.0 | 0.00 | 0.07 | 0.00 | 90 | 1011.7 |
| 20260906075957 | 71 | 197 | 0.0 | 0.0 | 0.00 | 0.07 | 0.00 | 90 | 1011.7 |
| 20260906075858 | 71 | 197 | 0.0 | 0.0 | 0.00 | 0.07 | 0.00 | 90 | 1011.8 |
| 20260906075757 | 71 | 197 | 0.0 | 0.0 | 0.00 | 0.07 | 0.00 | 90 | 1011.6 |
| 20260906075657 | 71 | 197 | 0.0 | 0.0 | 0.00 | 0.07 | 0.00 | 90 | 1011.7 |
| 20260906075557 | 71 | 197 | 0.0 | 0.0 | 0.00 | 0.07 | 0.00 | 90 | 1011.7 |
| 20260906075458 | 71 | 197 | 0.0 | 0.0 | 0.00 | 0.07 | 0.00 | 90 | 1011.7 |
| 20260906075358 | 71 | 197 | 0.0 | 0.0 | 0.00 | 0.07 | 0.00 | 90 | 1011.7 |
| 20260906075257 | 71 | 197 | 0.0 | 0.0 | 0.00 | 0.07 | 0.00 | 90 | 1011.7 |
| 20260906075158 | 71 | 197 | 0.0 | 0.0 | 0.00 | 0.07 | 0.00 | 90 | 1011.7 |
| 20260906075058 | 71 | 197 | 0.0 | 0.0 | 0.00 | 0.07 | 0.00 | 90 | 1011.7 |
| 20260906074957 | 71 | 197 | 0.0 | 0.0 | 0.00 | 0.07 | 0.00 | 90 | 1011.7 |
| 20260906074757 | 71 | 197 | 0.0 | 0.0 | 0.00 | 0.07 | 0.00 | 90 | 1011.5 |
| 20260906074658 | 71 | 197 | 0.0 | 0.0 | 0.00 | 0.07 | 0.00 | 90 | 1011.6 |
| 20260906074558 | 71 | 197 | 0.0 | 0.0 | 0.00 | 0.07 | 0.00 | 90 | 1010.8 |
| 20260906074457 | 71 | 197 | 0.0 | 0.0 | 0.00 | 0.07 | 0.00 | 90 | 1011.5 |
| 20260906074357 | 71 | 197 | 0.0 | 0.0 | 0.00 | 0.07 | 0.00 | 90 | 1011.5 |
| 20260906074257 | 71 | 197 | 0.0 | 0.0 | 0.00 | 0.07 | 0.00 | 90 | 1011.5 |
| 20260906074158 | 71 | 197 | 0.0 | 0.0 | 0.00 | 0.07 | 0.00 | 90 | 1011.5 |
| 20260906074057 | 71 | 197 | 0.0 | 0.0 | 0.00 | 0.07 | 0.00 | 90 | 1011.4 |
| 20260906073957 | 71 | 197 | 0.0 | 0.0 | 0.00 | 0.07 | 0.00 | 90 | 1011.5 |
| 20260906073858 | 71 | 197 | 0.0 | 0.0 | 0.00 | 0.07 | 0.00 | 90 | 1011.5 |
| 20260906073758 | 71 | 197 | 0.0 | 0.0 | 0.00 | 0.07 | 0.00 | 90 | 1011.5 |
| 20260906073557 | 71 | 197 | 0.0 | 0.0 | 0.00 | 0.07 | 0.00 | 90 | 1011.5 |
| 20260906073458 | 71 | 197 | 0.0 | 0.0 | 0.00 | 0.07 | 0.00 | 90 | 1011.4 |
| 20260906073357 | 70 | 197 | 0.0 | 0.0 | 0.00 | 0.07 | 0.00 | 90 | 1011.5 |
| 20260906073257 | 70 | 197 | 0.0 | 0.0 | 0.00 | 0.07 | 0.00 | 90 | 1011.5 |
| 20260906073159 | 70 | 197 | 0.0 | 0.0 | 0.00 | 0.07 | 0.00 | 90 | 1011.5 |
| 20260906073057 | 70 | 197 | 0.0 | 0.0 | 0.00 | 0.07 | 0.00 | 90 | 1011.4 |
| 20260906072857 | 70 | 197 | 0.0 | 0.0 | 0.00 | 0.07 | 0.00 | 90 | 1011.5 |
| 20260906072757 | 70 | 197 | 0.0 | 0.0 | 0.00 | 0.07 | 0.00 | 90 | 1011.6 |
| 20260906072657 | 70 | 197 | 0.0 | 0.0 | 0.00 | 0.07 | 0.00 | 90 | 1011.6 |
| 20260906072558 | 70 | 197 | 0.0 | 0.0 | 0.00 | 0.07 | 0.00 | 90 | 1011.4 |
| 20260906072457 | 70 | 197 | 0.0 | 0.0 | 0.00 | 0.07 | 0.00 | 90 | 1011.6 |
| 20260906072358 | 70 | 197 | 0.0 | 0.0 | 0.00 | 0.07 | 0.00 | 90 | 1011.6 |
| 20260906072257 | 70 | 197 | 0.0 | 0.0 | 0.00 | 0.07 | 0.00 | 90 | 1011.5 |
| 20260906072157 | 70 | 197 | 0.0 | 0.0 | 0.00 | 0.07 | 0.00 | 90 | 1011.6 |
| 20260906072057 | 70 | 197 | 0.0 | 0.0 | 0.00 | 0.07 | 0.00 | 90 | 1011.4 |
| 20260906071957 | 70 | 197 | 0.0 | 0.0 | 0.00 | 0.07 | 0.00 | 90 | 1011.5 |
| 20260906071857 | 70 | 197 | 0.0 | 0.0 | 0.00 | 0.07 | 0.00 | 90 | 1011.4 |
| 20260906071757 | 70 | 197 | 0.0 | 0.0 | 0.00 | 0.07 | 0.00 | 90 | 1011.4 |
| 20260906071606 | 70 | 197 | 0.0 | 0.0 | 0.00 | 0.07 | 0.00 | 90 | 1010.7 |
| 20260906071557 | 70 | 197 | 0.0 | 0.0 | 0.00 | 0.07 | 0.00 | 90 | 1011.4 |
| 20260906071457 | 70 | 197 | 0.0 | 0.0 | 0.00 | 0.07 | 0.00 | 90 | 1011.4 |
| 20260906071258 | 70 | 197 | 0.0 | 0.0 | 0.00 | 0.07 | 0.00 | 90 | 1011.5 |
| 20260906071156 | 70 | 197 | 0.0 | 0.0 | 0.00 | 0.07 | 0.00 | 90 | 1011.5 |
| 20260906071057 | 70 | 197 | 0.0 | 0.0 | 0.00 | 0.07 | 0.00 | 90 | 1011.5 |
| 20260906070857 | 70 | 197 | 0.0 | 0.0 | 0.00 | 0.07 | 0.00 | 90 | 1011.4 |
| 20260906070658 | 70 | 197 | 0.0 | 0.0 | 0.00 | 0.07 | 0.00 | 90 | 1011.3 |
| 20260906070557 | 70 | 197 | 0.0 | 0.0 | 0.00 | 0.07 | 0.00 | 90 | 1011.3 |
| 20260906070456 | 70 | 197 | 0.0 | 0.0 | 0.00 | 0.07 | 0.00 | 90 | 1011.3 |
| 20260906070357 | 70 | 197 | 0.0 | 0.0 | 0.00 | 0.07 | 0.00 | 90 | 1011.3 |
| 20260906070157 | 70 | 197 | 0.0 | 0.0 | 0.00 | 0.07 | 0.00 | 90 | 1011.4 |
| 20260906070058 | 70 | 197 | 0.0 | 0.0 | 0.00 | 0.07 | 0.00 | 89 | 1011.3 |
| 20260906065958 | 70 | 197 | 0.0 | 0.0 | 0.00 | 0.07 | 0.00 | 89 | 1011.3 |
| 20260906065857 | 70 | 197 | 0.0 | 0.0 | 0.00 | 0.07 | 0.00 | 89 | 1011.4 |
| 20260906065759 | 70 | 197 | 0.0 | 0.0 | 0.00 | 0.07 | 0.00 | 90 | 1011.4 |
| 20260906065657 | 70 | 197 | 0.0 | 0.0 | 0.00 | 0.07 | 0.00 | 89 | 1011.4 |
| 20260906065457 | 70 | 197 | 0.0 | 0.0 | 0.00 | 0.07 | 0.00 | 89 | 1011.4 |
| 20260906065356 | 70 | 197 | 0.0 | 0.0 | 0.00 | 0.07 | 0.00 | 89 | 1011.5 |
| 20260906065157 | 70 | 197 | 0.0 | 0.0 | 0.00 | 0.07 | 0.00 | 89 | 1011.6 |
| 20260906065058 | 70 | 197 | 0.0 | 0.0 | 0.00 | 0.07 | 0.00 | 89 | 1011.6 |
| 20260906064957 | 70 | 197 | 0.0 | 0.0 | 0.00 | 0.07 | 0.00 | 89 | 1011.5 |
| 20260906064857 | 70 | 197 | 0.0 | 0.0 | 0.00 | 0.07 | 0.00 | 89 | 1011.6 |
| 20260906064758 | 70 | 197 | 0.0 | 0.0 | 0.00 | 0.07 | 0.00 | 89 | 1011.6 |
| 20260906064657 | 70 | 197 | 0.0 | 0.0 | 0.00 | 0.07 | 0.00 | 89 | 1011.6 |
| 20260906064558 | 70 | 197 | 0.0 | 0.0 | 0.00 | 0.07 | 0.00 | 89 | 1011.7 |
| 20260906064458 | 70 | 197 | 0.0 | 0.0 | 0.00 | 0.07 | 0.00 | 89 | 1011.7 |
| 20260906064358 | 70 | 197 | 0.0 | 0.0 | 0.00 | 0.07 | 0.00 | 89 | 1011.7 |
| 20260906064157 | 70 | 197 | 0.0 | 0.0 | 0.00 | 0.07 | 0.00 | 89 | 1011.8 |
| 20260906063957 | 70 | 197 | 0.0 | 0.0 | 0.00 | 0.07 | 0.00 | 89 | 1011.7 |
| 20260906063856 | 70 | 197 | 0.0 | 0.0 | 0.00 | 0.07 | 0.00 | 89 | 1011.6 |
| 20260906063657 | 70 | 197 | 0.0 | 0.0 | 0.00 | 0.07 | 0.00 | 89 | 1011.7 |
| 20260906063557 | 70 | 197 | 0.0 | 0.0 | 0.00 | 0.07 | 0.00 | 89 | 1011.8 |
| 20260906063356 | 70 | 197 | 0.0 | 0.0 | 0.00 | 0.07 | 0.00 | 89 | 1011.7 |
| 20260906063258 | 70 | 197 | 0.0 | 0.0 | 0.00 | 0.07 | 0.00 | 89 | 1011.7 |
| 20260906063158 | 70 | 197 | 0.0 | 0.0 | 0.00 | 0.07 | 0.00 | 89 | 1011.7 |
| 20260906063101 | 70 | 197 | 0.0 | 0.0 | 0.00 | 0.07 | 0.00 | 89 | 1010.9 |
| 20260906063058 | 70 | 197 | 0.0 | 0.0 | 0.00 | 0.07 | 0.00 | 89 | 1011.7 |
| 20260906062958 | 70 | 197 | 0.0 | 0.0 | 0.00 | 0.07 | 0.00 | 89 | 1011.7 |
| 20260906062857 | 70 | 197 | 0.0 | 0.0 | 0.00 | 0.07 | 0.00 | 89 | 1011.7 |
| 20260906062800 | 70 | 197 | 0.0 | 0.0 | 0.00 | 0.07 | 0.00 | 89 | 1011.6 |
| 20260906062657 | 70 | 197 | 0.0 | 0.0 | 0.00 | 0.07 | 0.00 | 89 | 1011.6 |
| 20260906062558 | 70 | 197 | 0.0 | 0.0 | 0.00 | 0.07 | 0.00 | 89 | 1011.6 |
| 20260906062457 | 70 | 197 | 0.0 | 0.0 | 0.00 | 0.07 | 0.00 | 89 | 1011.6 |
| 20260906062257 | 70 | 197 | 0.0 | 0.0 | 0.00 | 0.07 | 0.00 | 89 | 1011.7 |
| 20260906062156 | 70 | 197 | 0.0 | 0.0 | 0.00 | 0.07 | 0.00 | 89 | 1011.7 |
| 20260906062058 | 70 | 197 | 0.0 | 0.0 | 0.00 | 0.07 | 0.00 | 89 | 1011.6 |
| 20260906061957 | 70 | 197 | 0.0 | 0.0 | 0.00 | 0.07 | 0.00 | 89 | 1011.7 |
| 20260906061858 | 71 | 197 | 0.0 | 0.0 | 0.00 | 0.07 | 0.00 | 89 | 1011.7 |
| 20260906061758 | 71 | 197 | 0.0 | 0.0 | 0.00 | 0.07 | 0.00 | 89 | 1011.7 |
| 20260906061658 | 71 | 197 | 0.0 | 0.0 | 0.00 | 0.07 | 0.00 | 89 | 1011.6 |
| 20260906061558 | 71 | 197 | 0.0 | 0.0 | 0.00 | 0.07 | 0.00 | 89 | 1011.6 |
| 20260906061459 | 71 | 197 | 0.0 | 0.0 | 0.00 | 0.07 | 0.00 | 89 | 1011.6 |
| 20260906061258 | 71 | 197 | 0.0 | 0.0 | 0.00 | 0.07 | 0.00 | 89 | 1011.6 |
| 20260906061158 | 71 | 197 | 0.0 | 0.0 | 0.00 | 0.07 | 0.00 | 89 | 1011.7 |
| 20260906061058 | 71 | 197 | 0.0 | 0.0 | 0.00 | 0.07 | 0.00 | 89 | 1011.6 |
| 20260906060957 | 71 | 197 | 0.0 | 0.0 | 0.00 | 0.07 | 0.00 | 89 | 1011.6 |
| 20260906060757 | 71 | 197 | 0.0 | 0.0 | 0.00 | 0.07 | 0.00 | 89 | 1011.6 |
| 20260906060659 | 71 | 197 | 0.0 | 0.0 | 0.00 | 0.07 | 0.00 | 89 | 1011.6 |
| 20260906060557 | 71 | 197 | 0.0 | 0.0 | 0.00 | 0.07 | 0.00 | 89 | 1011.7 |
| 20260906060158 | 71 | 197 | 0.0 | 0.0 | 0.00 | 0.07 | 0.00 | 89 | 1011.6 |
| 20260906060058 | 71 | 197 | 0.0 | 0.0 | 0.00 | 0.07 | 0.00 | 89 | 1011.6 |
| 20260906055957 | 71 | 197 | 0.0 | 0.0 | 0.00 | 0.07 | 0.00 | 89 | 1011.7 |
| 20260906055756 | 71 | 197 | 0.0 | 0.0 | 0.00 | 0.07 | 0.00 | 89 | 1011.7 |
| 20260906055556 | 71 | 197 | 0.0 | 0.0 | 0.00 | 0.07 | 0.00 | 89 | 1011.7 |
| 20260906055457 | 71 | 197 | 0.0 | 0.0 | 0.00 | 0.07 | 0.00 | 89 | 1011.7 |
| 20260906055356 | 71 | 197 | 0.0 | 0.0 | 0.00 | 0.07 | 0.00 | 89 | 1011.7 |
| 20260906055256 | 71 | 197 | 0.0 | 0.0 | 0.00 | 0.07 | 0.00 | 89 | 1011.9 |
| 20260906055157 | 71 | 197 | 0.0 | 0.0 | 0.00 | 0.07 | 0.00 | 89 | 1011.8 |
| 20260906055056 | 71 | 197 | 0.0 | 0.0 | 0.00 | 0.07 | 0.00 | 89 | 1011.8 |
| 20260906054955 | 71 | 197 | 0.0 | 0.0 | 0.00 | 0.07 | 0.00 | 89 | 1011.9 |
| 20260906054856 | 71 | 197 | 0.0 | 0.0 | 0.00 | 0.07 | 0.00 | 89 | 1011.9 |
| 20260906054656 | 71 | 197 | 0.0 | 0.0 | 0.00 | 0.07 | 0.00 | 89 | 1011.8 |
| 20260906054558 | 71 | 197 | 0.0 | 0.0 | 0.00 | 0.07 | 0.00 | 89 | 1011.1 |
| 20260906054457 | 71 | 197 | 0.0 | 0.0 | 0.00 | 0.07 | 0.00 | 89 | 1011.9 |
| 20260906054357 | 71 | 197 | 0.0 | 0.0 | 0.00 | 0.07 | 0.00 | 89 | 1011.8 |
| 20260906054256 | 71 | 197 | 0.0 | 0.0 | 0.00 | 0.07 | 0.00 | 89 | 1011.9 |
| 20260906054156 | 71 | 197 | 0.0 | 0.0 | 0.00 | 0.07 | 0.00 | 89 | 1011.8 |
| 20260906054055 | 71 | 197 | 0.0 | 0.0 | 0.00 | 0.07 | 0.00 | 89 | 1011.9 |
| 20260906053957 | 71 | 197 | 0.0 | 0.0 | 0.00 | 0.07 | 0.00 | 89 | 1011.8 |
| 20260906053757 | 71 | 197 | 0.0 | 0.0 | 0.00 | 0.07 | 0.00 | 89 | 1011.9 |
| 20260906053656 | 71 | 197 | 0.0 | 0.0 | 0.00 | 0.07 | 0.00 | 89 | 1011.9 |
| 20260906053556 | 71 | 197 | 0.0 | 0.0 | 0.00 | 0.07 | 0.00 | 89 | 1012.0 |
| 20260906053456 | 71 | 197 | 0.0 | 0.0 | 0.00 | 0.07 | 0.00 | 89 | 1012.0 |
| 20260906053357 | 71 | 197 | 0.0 | 0.0 | 0.00 | 0.07 | 0.00 | 89 | 1011.9 |
| 20260906053257 | 71 | 197 | 0.0 | 0.0 | 0.00 | 0.07 | 0.00 | 89 | 1012.0 |
| 20260906053056 | 71 | 197 | 0.0 | 0.0 | 0.00 | 0.07 | 0.00 | 89 | 1011.3 |
| 20260906052956 | 71 | 197 | 0.0 | 0.0 | 0.00 | 0.07 | 0.00 | 89 | 1012.1 |
| 20260906052757 | 71 | 197 | 0.0 | 0.0 | 0.00 | 0.07 | 0.00 | 89 | 1012.2 |
| 20260906052656 | 71 | 197 | 0.0 | 0.0 | 0.00 | 0.07 | 0.00 | 89 | 1012.2 |
| 20260906052356 | 71 | 197 | 0.0 | 0.0 | 0.00 | 0.07 | 0.00 | 89 | 1012.2 |
| 20260906052256 | 71 | 197 | 0.0 | 0.0 | 0.00 | 0.07 | 0.00 | 89 | 1012.3 |
| 20260906052057 | 71 | 197 | 0.0 | 0.0 | 0.00 | 0.07 | 0.00 | 89 | 1012.2 |
| 20260906051955 | 71 | 197 | 0.0 | 0.0 | 0.00 | 0.07 | 0.00 | 89 | 1012.3 |
| 20260906051656 | 71 | 197 | 0.0 | 0.0 | 0.00 | 0.07 | 0.00 | 89 | 1012.2 |
| 20260906051556 | 71 | 197 | 0.0 | 0.0 | 0.00 | 0.07 | 0.00 | 89 | 1011.4 |
| 20260906051456 | 71 | 197 | 0.0 | 0.0 | 0.00 | 0.07 | 0.00 | 89 | 1012.3 |
| 20260906051057 | 71 | 197 | 0.0 | 0.0 | 0.00 | 0.07 | 0.00 | 89 | 1012.2 |
| 20260906050957 | 71 | 197 | 0.0 | 0.0 | 0.00 | 0.07 | 0.00 | 89 | 1012.2 |
| 20260906050856 | 71 | 197 | 0.0 | 0.0 | 0.00 | 0.07 | 0.00 | 89 | 1012.3 |
| 20260906050756 | 71 | 197 | 0.0 | 0.0 | 0.00 | 0.07 | 0.00 | 89 | 1012.2 |
| 20260906050656 | 72 | 197 | 0.0 | 0.0 | 0.00 | 0.07 | 0.00 | 89 | 1012.2 |
| 20260906050556 | 72 | 197 | 0.0 | 0.0 | 0.00 | 0.07 | 0.00 | 89 | 1012.3 |
| 20260906050456 | 72 | 197 | 0.0 | 0.0 | 0.00 | 0.07 | 0.00 | 89 | 1012.2 |
| 20260906050356 | 72 | 197 | 0.0 | 0.0 | 0.00 | 0.07 | 0.00 | 89 | 1012.3 |
| 20260906050256 | 72 | 197 | 0.0 | 0.0 | 0.00 | 0.07 | 0.00 | 89 | 1012.3 |
| 20260906050156 | 72 | 197 | 0.0 | 0.0 | 0.00 | 0.07 | 0.00 | 89 | 1012.3 |
| 20260906050116 | 72 | 197 | 0.0 | 0.0 | 0.00 | 0.07 | 0.00 | 89 | 1011.4 |
| 20260906050057 | 72 | 197 | 0.0 | 0.0 | 0.00 | 0.07 | 0.00 | 89 | 1012.3 |
| 20260906045959 | 72 | 197 | 0.0 | 0.0 | 0.00 | 0.07 | 0.00 | 89 | 1012.3 |
| 20260906045757 | 72 | 197 | 0.0 | 0.0 | 0.00 | 0.07 | 0.00 | 89 | 1012.4 |
| 20260906045658 | 72 | 197 | 0.0 | 0.0 | 0.00 | 0.07 | 0.00 | 89 | 1012.4 |
| 20260906045457 | 72 | 197 | 0.0 | 0.0 | 0.00 | 0.07 | 0.00 | 89 | 1012.4 |
| 20260906045356 | 72 | 197 | 0.0 | 0.0 | 0.00 | 0.07 | 0.00 | 89 | 1012.4 |
| 20260906045258 | 72 | 197 | 0.0 | 0.0 | 0.00 | 0.07 | 0.00 | 89 | 1012.4 |
| 20260906045159 | 72 | 197 | 0.0 | 0.0 | 0.00 | 0.07 | 0.00 | 89 | 1012.4 |
| 20260906045057 | 72 | 197 | 0.0 | 0.0 | 0.00 | 0.07 | 0.00 | 89 | 1012.4 |
| 20260906044957 | 72 | 197 | 0.0 | 0.0 | 0.00 | 0.07 | 0.00 | 89 | 1012.4 |
| 20260906044859 | 72 | 197 | 0.0 | 0.0 | 0.00 | 0.07 | 0.00 | 89 | 1012.3 |
| 20260906044757 | 72 | 197 | 0.0 | 0.0 | 0.00 | 0.07 | 0.00 | 89 | 1012.4 |
| 20260906044657 | 72 | 197 | 0.0 | 0.0 | 0.00 | 0.07 | 0.00 | 89 | 1012.4 |
| 20260906044557 | 72 | 197 | 0.0 | 0.0 | 0.00 | 0.07 | 0.00 | 89 | 1012.4 |
| 20260906044458 | 72 | 197 | 0.0 | 0.0 | 0.00 | 0.07 | 0.00 | 89 | 1012.4 |
| 20260906044357 | 72 | 197 | 0.0 | 0.0 | 0.00 | 0.07 | 0.00 | 89 | 1012.5 |
| 20260906044258 | 72 | 197 | 0.0 | 0.0 | 0.00 | 0.07 | 0.00 | 89 | 1012.4 |
| 20260906044158 | 72 | 197 | 0.0 | 0.0 | 0.00 | 0.07 | 0.00 | 89 | 1012.4 |
| 20260906044058 | 72 | 197 | 0.0 | 0.0 | 0.00 | 0.07 | 0.00 | 89 | 1012.3 |
| 20260906043957 | 72 | 197 | 0.0 | 0.0 | 0.00 | 0.07 | 0.00 | 89 | 1012.4 |
| 20260906043900 | 72 | 197 | 0.0 | 0.0 | 0.00 | 0.07 | 0.00 | 89 | 1012.3 |
| 20260906043757 | 72 | 197 | 0.0 | 0.0 | 0.00 | 0.07 | 0.00 | 89 | 1012.4 |
| 20260906043658 | 72 | 197 | 0.0 | 0.0 | 0.00 | 0.07 | 0.00 | 89 | 1012.4 |
| 20260906043557 | 72 | 197 | 0.0 | 0.0 | 0.00 | 0.07 | 0.00 | 89 | 1012.4 |
| 20260906043458 | 72 | 197 | 0.0 | 0.0 | 0.00 | 0.07 | 0.00 | 89 | 1012.5 |
| 20260906043357 | 72 | 197 | 0.0 | 0.0 | 0.00 | 0.07 | 0.00 | 89 | 1012.6 |
| 20260906043256 | 72 | 197 | 0.0 | 0.0 | 0.00 | 0.07 | 0.00 | 89 | 1012.5 |
| 20260906043158 | 72 | 197 | 0.0 | 0.0 | 0.00 | 0.07 | 0.00 | 89 | 1012.4 |
| 20260906043108 | 72 | 197 | 0.0 | 0.0 | 0.00 | 0.07 | 0.00 | 89 | 1011.8 |
| 20260906043059 | 72 | 197 | 0.0 | 0.0 | 0.00 | 0.07 | 0.00 | 89 | 1012.6 |
| 20260906042957 | 72 | 197 | 0.0 | 0.0 | 0.00 | 0.07 | 0.00 | 89 | 1012.6 |
| 20260906042857 | 72 | 197 | 0.0 | 0.0 | 0.00 | 0.07 | 0.00 | 89 | 1012.6 |
| 20260906042757 | 72 | 197 | 0.0 | 0.0 | 0.00 | 0.07 | 0.00 | 89 | 1012.6 |
| 20260906042658 | 72 | 197 | 0.0 | 0.0 | 0.00 | 0.07 | 0.00 | 89 | 1012.5 |
| 20260906042557 | 72 | 197 | 0.0 | 0.0 | 0.00 | 0.07 | 0.00 | 89 | 1012.6 |
| 20260906042458 | 72 | 197 | 0.0 | 0.0 | 0.00 | 0.07 | 0.00 | 89 | 1012.6 |
| 20260906042357 | 72 | 197 | 0.0 | 0.0 | 0.00 | 0.07 | 0.00 | 89 | 1012.6 |
| 20260906042257 | 72 | 197 | 0.0 | 0.0 | 0.00 | 0.07 | 0.00 | 89 | 1012.6 |
| 20260906041957 | 72 | 197 | 0.0 | 0.0 | 0.00 | 0.07 | 0.00 | 89 | 1012.6 |
| 20260906041857 | 72 | 197 | 0.0 | 0.0 | 0.00 | 0.07 | 0.00 | 89 | 1012.7 |
| 20260906041758 | 72 | 197 | 0.0 | 0.0 | 0.00 | 0.07 | 0.00 | 89 | 1012.6 |
| 20260906041656 | 72 | 197 | 0.0 | 0.0 | 0.00 | 0.07 | 0.00 | 89 | 1012.6 |
| 20260906041557 | 72 | 197 | 0.0 | 0.0 | 0.00 | 0.07 | 0.00 | 89 | 1012.0 |
| 20260906041457 | 72 | 197 | 0.0 | 0.0 | 0.00 | 0.07 | 0.00 | 89 | 1012.6 |
| 20260906041357 | 72 | 197 | 0.0 | 0.0 | 0.00 | 0.07 | 0.00 | 89 | 1012.7 |
| 20260906041257 | 72 | 197 | 0.0 | 0.0 | 0.00 | 0.07 | 0.00 | 89 | 1012.6 |
| 20260906041158 | 72 | 197 | 0.0 | 0.0 | 0.00 | 0.07 | 0.00 | 89 | 1012.7 |
| 20260906041057 | 72 | 198 | 0.0 | 0.0 | 0.00 | 0.07 | 0.00 | 89 | 1012.7 |
| 20260906040858 | 72 | 197 | 0.0 | 0.0 | 0.00 | 0.07 | 0.00 | 89 | 1012.8 |
| 20260906040757 | 72 | 197 | 0.0 | 0.0 | 0.00 | 0.07 | 0.00 | 89 | 1012.7 |
| 20260906040657 | 72 | 197 | 0.0 | 0.0 | 0.00 | 0.07 | 0.00 | 89 | 1012.8 |
| 20260906040557 | 72 | 197 | 0.0 | 0.0 | 0.00 | 0.07 | 0.00 | 89 | 1012.9 |
| 20260906040457 | 72 | 197 | 0.0 | 0.0 | 0.00 | 0.07 | 0.00 | 89 | 1012.7 |
| 20260906040357 | 72 | 197 | 0.0 | 0.0 | 0.00 | 0.07 | 0.00 | 89 | 1012.8 |
| 20260906040257 | 72 | 198 | 0.0 | 0.0 | 0.00 | 0.07 | 0.00 | 89 | 1012.8 |
| 20260906040159 | 72 | 197 | 0.0 | 0.0 | 0.00 | 0.07 | 0.00 | 89 | 1012.8 |
| 20260906040100 | 72 | 197 | 0.0 | 0.0 | 0.00 | 0.07 | 0.00 | 89 | 1012.0 |
| 20260906040059 | 72 | 197 | 0.0 | 0.0 | 0.00 | 0.07 | 0.00 | 89 | 1012.7 |
| 20260906035959 | 72 | 195 | 0.0 | 0.0 | 0.00 | 0.07 | 0.07 | 89 | 1012.8 |
| 20260906035859 | 72 | 196 | 0.0 | 0.0 | 0.00 | 0.07 | 0.07 | 89 | 1012.8 |
| 20260906035759 | 72 | 195 | 0.0 | 0.0 | 0.00 | 0.07 | 0.07 | 89 | 1012.8 |
| 20260906035700 | 72 | 195 | 0.0 | 0.0 | 0.00 | 0.07 | 0.07 | 89 | 1012.8 |
| 20260906035600 | 72 | 195 | 0.0 | 0.0 | 0.00 | 0.07 | 0.07 | 89 | 1012.8 |
| 20260906035459 | 72 | 195 | 0.0 | 0.0 | 0.00 | 0.07 | 0.07 | 89 | 1012.7 |
| 20260906035359 | 72 | 195 | 0.0 | 0.0 | 0.00 | 0.07 | 0.07 | 89 | 1012.8 |
| 20260906035301 | 72 | 195 | 0.0 | 0.0 | 0.00 | 0.07 | 0.07 | 89 | 1012.7 |
| 20260906035159 | 72 | 195 | 0.0 | 0.0 | 0.00 | 0.07 | 0.07 | 89 | 1012.7 |
| 20260906035059 | 72 | 195 | 0.0 | 0.0 | 0.00 | 0.07 | 0.07 | 89 | 1012.8 |
| 20260906034859 | 72 | 195 | 0.0 | 0.0 | 0.00 | 0.07 | 0.07 | 89 | 1012.6 |
| 20260906034759 | 72 | 195 | 0.0 | 0.0 | 0.00 | 0.07 | 0.07 | 89 | 1012.7 |
| 20260906034658 | 72 | 195 | 0.0 | 0.0 | 0.00 | 0.07 | 0.07 | 89 | 1012.7 |
| 20260906034559 | 72 | 195 | 0.0 | 0.0 | 0.00 | 0.07 | 0.07 | 89 | 1011.8 |
| 20260906034459 | 72 | 195 | 0.0 | 0.0 | 0.00 | 0.07 | 0.07 | 89 | 1012.7 |
| 20260906034359 | 72 | 195 | 0.0 | 0.0 | 0.00 | 0.07 | 0.07 | 89 | 1012.6 |
| 20260906034200 | 72 | 196 | 0.0 | 0.0 | 0.00 | 0.07 | 0.07 | 89 | 1012.6 |
| 20260906033859 | 72 | 197 | 0.0 | 0.0 | 0.00 | 0.07 | 0.07 | 89 | 1012.5 |
| 20260906033559 | 72 | 197 | 0.0 | 0.0 | 0.00 | 0.07 | 0.07 | 89 | 1012.7 |
| 20260906033500 | 72 | 197 | 0.0 | 0.0 | 0.00 | 0.07 | 0.07 | 89 | 1012.6 |
| 20260906033359 | 72 | 197 | 0.0 | 0.0 | 0.00 | 0.07 | 0.07 | 89 | 1012.7 |
| 20260906033259 | 72 | 197 | 0.0 | 0.0 | 0.00 | 0.07 | 0.07 | 89 | 1012.7 |
| 20260906033159 | 72 | 197 | 0.0 | 0.0 | 0.00 | 0.07 | 0.07 | 89 | 1012.7 |
| 20260906033059 | 72 | 197 | 0.0 | 0.0 | 0.00 | 0.07 | 0.07 | 89 | 1012.0 |
| 20260906032859 | 72 | 197 | 0.0 | 0.0 | 0.00 | 0.07 | 0.07 | 89 | 1012.7 |
| 20260906032759 | 72 | 197 | 0.0 | 0.0 | 0.00 | 0.07 | 0.07 | 89 | 1012.7 |
| 20260906032659 | 72 | 197 | 0.0 | 0.0 | 0.00 | 0.07 | 0.07 | 89 | 1012.8 |
| 20260906032559 | 72 | 197 | 0.0 | 0.0 | 0.00 | 0.07 | 0.07 | 89 | 1012.8 |
| 20260906032459 | 72 | 197 | 0.0 | 0.0 | 0.00 | 0.07 | 0.07 | 89 | 1012.7 |
| 20260906032159 | 72 | 197 | 0.0 | 0.0 | 0.00 | 0.07 | 0.07 | 89 | 1012.8 |
| 20260906031959 | 72 | 197 | 0.0 | 0.0 | 0.00 | 0.07 | 0.07 | 89 | 1012.8 |
| 20260906031859 | 72 | 197 | 0.0 | 0.0 | 0.00 | 0.07 | 0.07 | 89 | 1012.7 |
| 20260906031759 | 72 | 197 | 0.0 | 0.0 | 0.00 | 0.07 | 0.07 | 89 | 1012.8 |
| 20260906031659 | 72 | 198 | 0.0 | 0.0 | 0.00 | 0.07 | 0.07 | 89 | 1012.8 |
| 20260906031600 | 72 | 197 | 0.0 | 0.0 | 0.00 | 0.07 | 0.07 | 89 | 1012.7 |
| 20260906031459 | 72 | 197 | 0.0 | 0.0 | 0.00 | 0.07 | 0.07 | 89 | 1012.8 |
| 20260906031358 | 72 | 197 | 0.0 | 0.0 | 0.00 | 0.07 | 0.07 | 89 | 1012.9 |
| 20260906031300 | 72 | 197 | 0.0 | 0.0 | 0.00 | 0.07 | 0.07 | 89 | 1012.7 |
| 20260906031201 | 72 | 197 | 0.0 | 0.0 | 0.00 | 0.07 | 0.07 | 89 | 1012.8 |
| 20260906031000 | 72 | 197 | 0.0 | 0.0 | 0.00 | 0.07 | 0.07 | 89 | 1012.7 |
| 20260906030859 | 72 | 197 | 0.0 | 0.0 | 0.00 | 0.07 | 0.07 | 89 | 1012.8 |
| 20260906030658 | 73 | 197 | 0.0 | 0.0 | 0.00 | 0.07 | 0.07 | 89 | 1012.7 |
| 20260906030559 | 73 | 197 | 0.0 | 0.0 | 0.00 | 0.07 | 0.07 | 89 | 1012.9 |
| 20260906030501 | 73 | 197 | 0.0 | 0.0 | 0.00 | 0.07 | 0.07 | 89 | 1012.7 |
| 20260906030359 | 73 | 197 | 0.0 | 0.0 | 0.00 | 0.07 | 0.07 | 89 | 1012.9 |
| 20260906030300 | 73 | 197 | 0.0 | 0.0 | 0.00 | 0.07 | 0.07 | 89 | 1013.0 |
| 20260906030159 | 73 | 197 | 0.0 | 0.0 | 0.00 | 0.07 | 0.07 | 89 | 1012.9 |
| 20260906030133 | 73 | 197 | 0.0 | 0.0 | 0.00 | 0.07 | 0.07 | 89 | 1012.1 |
| 20260906030100 | 73 | 197 | 0.0 | 0.0 | 0.00 | 0.07 | 0.07 | 89 | 1012.9 |
| 20260906030000 | 73 | 197 | 0.0 | 0.0 | 0.00 | 0.07 | 0.07 | 89 | 1012.8 |
| 20260906025859 | 73 | 197 | 0.0 | 0.0 | 0.00 | 0.07 | 0.07 | 89 | 1013.0 |
| 20260906025500 | 73 | 197 | 0.0 | 0.0 | 0.00 | 0.07 | 0.07 | 89 | 1012.9 |
| 20260906025359 | 73 | 197 | 0.0 | 0.0 | 0.00 | 0.07 | 0.07 | 89 | 1012.9 |
| 20260906025259 | 73 | 197 | 0.0 | 0.0 | 0.00 | 0.07 | 0.07 | 89 | 1012.9 |
| 20260906025159 | 73 | 197 | 0.0 | 0.0 | 0.00 | 0.07 | 0.07 | 89 | 1013.0 |
| 20260906025000 | 73 | 197 | 0.0 | 0.0 | 0.00 | 0.07 | 0.07 | 89 | 1013.0 |
| 20260906024900 | 73 | 197 | 0.0 | 0.0 | 0.00 | 0.07 | 0.07 | 89 | 1013.0 |
| 20260906024759 | 73 | 197 | 0.0 | 0.0 | 0.00 | 0.07 | 0.07 | 89 | 1013.0 |
| 20260906024659 | 73 | 197 | 0.0 | 0.0 | 0.00 | 0.07 | 0.07 | 89 | 1013.0 |
| 20260906024603 | 73 | 197 | 0.0 | 0.0 | 0.00 | 0.07 | 0.07 | 89 | 1012.1 |
| 20260906024559 | 73 | 197 | 0.0 | 0.0 | 0.00 | 0.07 | 0.07 | 89 | 1012.9 |
| 20260906024459 | 73 | 197 | 0.0 | 0.0 | 0.00 | 0.07 | 0.07 | 89 | 1013.1 |
| 20260906024359 | 73 | 197 | 0.0 | 0.0 | 0.00 | 0.07 | 0.07 | 89 | 1013.0 |
| 20260906024300 | 73 | 197 | 0.0 | 0.0 | 0.00 | 0.07 | 0.07 | 89 | 1012.9 |
| 20260906024159 | 73 | 197 | 0.0 | 0.0 | 0.00 | 0.07 | 0.07 | 89 | 1013.0 |
| 20260906024059 | 73 | 197 | 0.0 | 0.0 | 0.00 | 0.07 | 0.07 | 89 | 1012.9 |
| 20260906023959 | 73 | 197 | 0.0 | 0.0 | 0.00 | 0.07 | 0.07 | 89 | 1012.8 |
| 20260906023859 | 73 | 197 | 0.0 | 0.0 | 0.00 | 0.07 | 0.07 | 89 | 1012.9 |
| 20260906023800 | 73 | 197 | 0.0 | 0.0 | 0.00 | 0.07 | 0.07 | 89 | 1012.9 |
| 20260906023659 | 73 | 197 | 0.0 | 0.0 | 0.00 | 0.07 | 0.07 | 89 | 1013.0 |
| 20260906023559 | 73 | 197 | 0.0 | 0.0 | 0.00 | 0.07 | 0.07 | 89 | 1012.8 |
| 20260906023500 | 73 | 195 | 0.0 | 0.0 | 0.00 | 0.07 | 0.07 | 89 | 1012.8 |
| 20260906023359 | 73 | 197 | 0.0 | 0.0 | 0.00 | 0.07 | 0.07 | 89 | 1012.9 |
| 20260906023259 | 73 | 156 | 0.0 | 0.0 | 0.00 | 0.07 | 0.07 | 89 | 1012.7 |
| 20260906023159 | 73 | 157 | 0.0 | 0.0 | 0.00 | 0.07 | 0.07 | 89 | 1012.8 |
| 20260906023119 | 73 | 156 | 0.0 | 0.0 | 0.00 | 0.07 | 0.07 | 89 | 1012.0 |
| 20260906023059 | 73 | 156 | 0.0 | 0.0 | 0.00 | 0.07 | 0.07 | 89 | 1012.8 |
| 20260906023000 | 73 | 156 | 0.0 | 0.0 | 0.00 | 0.07 | 0.07 | 89 | 1012.7 |
| 20260906022859 | 73 | 156 | 0.0 | 0.0 | 0.00 | 0.07 | 0.07 | 89 | 1012.7 |
| 20260906022700 | 74 | 156 | 0.0 | 0.0 | 0.00 | 0.07 | 0.07 | 89 | 1012.7 |
| 20260906022558 | 74 | 158 | 0.0 | 0.0 | 0.00 | 0.07 | 0.07 | 89 | 1012.7 |
| 20260906022458 | 74 | 257 | 0.0 | 0.0 | 0.00 | 0.07 | 0.07 | 89 | 1012.6 |
| 20260906022358 | 74 | 257 | 0.0 | 0.0 | 0.00 | 0.07 | 0.07 | 89 | 1012.5 |
| 20260906022259 | 74 | 257 | 0.0 | 0.0 | 0.00 | 0.07 | 0.07 | 89 | 1012.5 |
| 20260906022159 | 74 | 257 | 0.0 | 0.0 | 0.00 | 0.07 | 0.07 | 89 | 1012.5 |
| 20260906022059 | 74 | 257 | 0.0 | 0.0 | 0.00 | 0.07 | 0.07 | 89 | 1012.5 |
| 20260906021859 | 74 | 257 | 0.0 | 0.0 | 0.00 | 0.07 | 0.07 | 89 | 1012.5 |
| 20260906021800 | 74 | 257 | 0.0 | 0.0 | 0.00 | 0.07 | 0.07 | 89 | 1012.5 |
| 20260906021659 | 74 | 257 | 0.0 | 0.0 | 0.00 | 0.07 | 0.07 | 89 | 1012.6 |
| 20260906021611 | 74 | 257 | 0.0 | 0.0 | 0.00 | 0.07 | 0.07 | 89 | 1011.7 |
| 20260906021600 | 74 | 257 | 0.0 | 0.0 | 0.00 | 0.07 | 0.07 | 89 | 1012.5 |
| 20260906021459 | 74 | 257 | 0.0 | 0.0 | 0.00 | 0.07 | 0.07 | 89 | 1012.5 |
| 20260906021259 | 74 | 257 | 0.0 | 0.0 | 0.00 | 0.07 | 0.07 | 89 | 1012.3 |
| 20260906021159 | 74 | 257 | 0.0 | 0.0 | 0.00 | 0.07 | 0.07 | 89 | 1012.3 |
| 20260906021059 | 74 | 257 | 0.0 | 0.0 | 0.00 | 0.07 | 0.07 | 89 | 1012.2 |
| 20260906020959 | 74 | 257 | 0.0 | 0.0 | 0.00 | 0.07 | 0.07 | 89 | 1012.2 |
| 20260906020759 | 74 | 257 | 0.0 | 0.0 | 0.00 | 0.07 | 0.07 | 89 | 1012.2 |
| 20260906020659 | 74 | 257 | 0.0 | 0.0 | 0.00 | 0.07 | 0.07 | 89 | 1012.2 |
| 20260906020559 | 74 | 257 | 0.0 | 0.0 | 0.00 | 0.07 | 0.07 | 89 | 1012.2 |
| 20260906020459 | 74 | 257 | 0.0 | 0.0 | 0.00 | 0.07 | 0.07 | 89 | 1012.2 |
| 20260906020359 | 74 | 257 | 0.0 | 0.0 | 0.00 | 0.07 | 0.07 | 89 | 1012.1 |
| 20260906020258 | 74 | 257 | 0.0 | 0.0 | 0.00 | 0.07 | 0.07 | 89 | 1012.2 |
| 20260906020159 | 74 | 257 | 0.0 | 0.0 | 0.00 | 0.07 | 0.07 | 89 | 1012.1 |
| 20260906020059 | 74 | 257 | 0.0 | 0.0 | 0.00 | 0.07 | 0.07 | 89 | 1012.2 |
| 20260906015958 | 74 | 257 | 0.0 | 0.0 | 0.00 | 0.07 | 0.07 | 89 | 1012.2 |
| 20260906015859 | 74 | 257 | 0.0 | 0.0 | 0.00 | 0.07 | 0.07 | 89 | 1012.3 |
| 20260906015759 | 74 | 257 | 0.0 | 0.0 | 0.00 | 0.07 | 0.07 | 89 | 1012.3 |
| 20260906015359 | 74 | 257 | 0.0 | 0.0 | 0.00 | 0.07 | 0.07 | 89 | 1012.5 |
| 20260906015300 | 74 | 257 | 0.0 | 0.0 | 0.00 | 0.07 | 0.07 | 89 | 1012.4 |
| 20260906015158 | 74 | 257 | 0.0 | 0.0 | 0.00 | 0.07 | 0.07 | 89 | 1012.5 |
| 20260906015059 | 74 | 257 | 0.0 | 0.0 | 0.00 | 0.07 | 0.07 | 89 | 1012.5 |
| 20260906014959 | 74 | 257 | 0.0 | 0.0 | 0.00 | 0.07 | 0.07 | 89 | 1012.6 |
| 20260906014859 | 74 | 257 | 0.0 | 0.0 | 0.00 | 0.07 | 0.07 | 89 | 1012.5 |
| 20260906014759 | 74 | 258 | 0.0 | 0.0 | 0.00 | 0.07 | 0.07 | 89 | 1012.6 |
| 20260906014659 | 74 | 257 | 0.0 | 0.0 | 0.00 | 0.07 | 0.07 | 89 | 1012.5 |
| 20260906014614 | 74 | 257 | 0.0 | 0.0 | 0.00 | 0.07 | 0.07 | 89 | 1011.7 |
| 20260906014559 | 74 | 257 | 0.0 | 0.0 | 0.00 | 0.07 | 0.07 | 89 | 1012.5 |
| 20260906014458 | 74 | 257 | 0.0 | 0.0 | 0.00 | 0.07 | 0.07 | 89 | 1012.4 |
| 20260906014359 | 74 | 257 | 0.0 | 0.0 | 0.00 | 0.07 | 0.07 | 89 | 1012.5 |
| 20260906014258 | 74 | 257 | 0.0 | 0.0 | 0.00 | 0.07 | 0.07 | 89 | 1012.5 |
| 20260906014100 | 74 | 257 | 0.0 | 0.0 | 0.00 | 0.07 | 0.07 | 89 | 1012.5 |
| 20260906013959 | 74 | 257 | 0.0 | 0.0 | 0.00 | 0.07 | 0.07 | 89 | 1012.4 |
| 20260906013900 | 74 | 257 | 0.0 | 0.0 | 0.00 | 0.07 | 0.07 | 89 | 1012.5 |
| 20260906013800 | 74 | 257 | 0.0 | 0.0 | 0.00 | 0.07 | 0.07 | 89 | 1012.5 |
| 20260906013659 | 74 | 257 | 0.0 | 0.0 | 0.00 | 0.07 | 0.07 | 89 | 1012.4 |
| 20260906013559 | 74 | 257 | 0.0 | 0.0 | 0.00 | 0.07 | 0.07 | 89 | 1012.4 |
| 20260906013459 | 74 | 257 | 0.0 | 0.0 | 0.00 | 0.07 | 0.07 | 89 | 1012.5 |
| 20260906013359 | 74 | 257 | 0.0 | 0.0 | 0.00 | 0.07 | 0.07 | 89 | 1012.3 |
| 20260906013259 | 74 | 257 | 0.0 | 0.0 | 0.00 | 0.07 | 0.07 | 89 | 1012.3 |
| 20260906013059 | 74 | 257 | 0.0 | 0.0 | 0.00 | 0.07 | 0.07 | 89 | 1011.7 |
| 20260906012959 | 74 | 257 | 0.0 | 0.0 | 0.00 | 0.07 | 0.07 | 89 | 1012.5 |
| 20260906012659 | 74 | 257 | 0.0 | 0.0 | 0.00 | 0.07 | 0.07 | 89 | 1012.5 |
| 20260906012559 | 74 | 257 | 0.0 | 0.0 | 0.00 | 0.07 | 0.07 | 89 | 1012.6 |
| 20260906012458 | 74 | 257 | 0.0 | 0.0 | 0.00 | 0.07 | 0.07 | 89 | 1012.6 |
| 20260906012400 | 74 | 257 | 0.0 | 0.0 | 0.00 | 0.07 | 0.07 | 89 | 1012.6 |
| 20260906012258 | 74 | 257 | 0.0 | 0.0 | 0.00 | 0.07 | 0.07 | 89 | 1012.6 |
| 20260906012159 | 74 | 257 | 0.0 | 0.0 | 0.00 | 0.07 | 0.07 | 89 | 1012.5 |
| 20260906012059 | 74 | 257 | 0.0 | 0.0 | 0.00 | 0.07 | 0.07 | 89 | 1012.6 |
| 20260906011959 | 74 | 257 | 0.0 | 0.0 | 0.00 | 0.07 | 0.07 | 89 | 1012.5 |
| 20260906011859 | 74 | 257 | 0.0 | 0.0 | 0.00 | 0.07 | 0.07 | 89 | 1012.4 |
| 20260906011759 | 74 | 257 | 0.0 | 0.0 | 0.00 | 0.07 | 0.07 | 89 | 1012.4 |
| 20260906011700 | 74 | 257 | 0.0 | 0.0 | 0.00 | 0.07 | 0.07 | 89 | 1012.3 |
| 20260906011605 | 74 | 257 | 0.0 | 0.0 | 0.00 | 0.07 | 0.07 | 89 | 1011.5 |
| 20260906011600 | 74 | 257 | 0.0 | 0.0 | 0.00 | 0.07 | 0.07 | 89 | 1012.3 |
| 20260906011359 | 74 | 257 | 0.0 | 0.0 | 0.00 | 0.07 | 0.07 | 89 | 1012.3 |
| 20260906011300 | 74 | 257 | 0.0 | 0.0 | 0.00 | 0.07 | 0.07 | 89 | 1012.2 |
| 20260906011159 | 74 | 257 | 0.0 | 0.0 | 0.00 | 0.07 | 0.07 | 89 | 1012.3 |
| 20260906011058 | 74 | 257 | 0.0 | 0.0 | 0.00 | 0.07 | 0.07 | 89 | 1012.3 |
| 20260906010859 | 74 | 257 | 0.0 | 0.0 | 0.00 | 0.07 | 0.07 | 89 | 1012.3 |
| 20260906010800 | 74 | 257 | 0.0 | 0.0 | 0.00 | 0.07 | 0.07 | 89 | 1012.3 |
| 20260906010659 | 74 | 257 | 0.0 | 0.0 | 0.00 | 0.07 | 0.07 | 89 | 1012.3 |
| 20260906010559 | 74 | 257 | 0.0 | 0.0 | 0.00 | 0.07 | 0.07 | 89 | 1012.3 |
| 20260906010459 | 74 | 257 | 0.0 | 0.0 | 0.00 | 0.07 | 0.07 | 89 | 1012.3 |
| 20260906010359 | 74 | 257 | 0.0 | 0.0 | 0.00 | 0.07 | 0.07 | 89 | 1012.2 |
| 20260906010300 | 74 | 257 | 0.0 | 0.0 | 0.00 | 0.07 | 0.07 | 89 | 1012.3 |
| 20260906010200 | 74 | 257 | 0.0 | 0.0 | 0.00 | 0.07 | 0.07 | 89 | 1012.2 |
| 20260906010100 | 74 | 257 | 0.0 | 0.0 | 0.00 | 0.07 | 0.07 | 89 | 1012.2 |
| 20260906010059 | 74 | 257 | 0.0 | 0.0 | 0.00 | 0.07 | 0.07 | 89 | 1011.4 |
| 20260906005959 | 74 | 257 | 0.0 | 0.0 | 0.00 | 0.07 | 0.07 | 89 | 1012.1 |
| 20260906005900 | 74 | 257 | 0.0 | 0.0 | 0.00 | 0.07 | 0.07 | 89 | 1012.1 |
| 20260906005759 | 74 | 257 | 0.0 | 0.0 | 0.00 | 0.07 | 0.07 | 89 | 1012.1 |
| 20260906005701 | 74 | 257 | 0.0 | 0.0 | 0.00 | 0.07 | 0.07 | 89 | 1012.1 |
| 20260906005600 | 74 | 257 | 0.0 | 0.0 | 0.00 | 0.07 | 0.07 | 89 | 1012.1 |
| 20260906005500 | 74 | 257 | 0.0 | 0.0 | 0.00 | 0.07 | 0.07 | 89 | 1012.1 |
| 20260906005300 | 74 | 257 | 0.0 | 0.0 | 0.00 | 0.07 | 0.07 | 89 | 1012.2 |
| 20260906005200 | 74 | 257 | 0.0 | 0.0 | 0.00 | 0.07 | 0.07 | 89 | 1012.1 |
| 20260906005100 | 74 | 257 | 0.0 | 0.0 | 0.00 | 0.07 | 0.07 | 89 | 1012.2 |
| 20260906005000 | 74 | 257 | 0.0 | 0.0 | 0.00 | 0.07 | 0.07 | 89 | 1012.1 |
| 20260906004900 | 74 | 257 | 0.0 | 0.0 | 0.00 | 0.07 | 0.07 | 89 | 1012.2 |
| 20260906004659 | 74 | 257 | 0.0 | 0.0 | 0.00 | 0.07 | 0.07 | 89 | 1012.2 |
| 20260906004601 | 74 | 257 | 0.0 | 0.0 | 0.00 | 0.07 | 0.07 | 89 | 1011.3 |
| 20260906004459 | 74 | 257 | 0.0 | 0.0 | 0.00 | 0.07 | 0.07 | 89 | 1012.1 |
| 20260906004400 | 74 | 257 | 0.0 | 0.0 | 0.00 | 0.07 | 0.07 | 89 | 1012.1 |
| 20260906004301 | 74 | 257 | 0.0 | 0.0 | 0.00 | 0.07 | 0.07 | 89 | 1012.1 |
| 20260906004201 | 74 | 257 | 0.0 | 0.0 | 0.00 | 0.07 | 0.07 | 89 | 1012.1 |
| 20260906004100 | 74 | 257 | 0.0 | 0.0 | 0.00 | 0.07 | 0.07 | 89 | 1011.9 |
| 20260906004000 | 74 | 257 | 0.0 | 0.0 | 0.00 | 0.07 | 0.07 | 89 | 1011.9 |
| 20260906003900 | 74 | 257 | 0.0 | 0.0 | 0.00 | 0.07 | 0.07 | 89 | 1011.9 |
| 20260906003800 | 74 | 257 | 0.0 | 0.0 | 0.00 | 0.07 | 0.07 | 89 | 1012.0 |
| 20260906003600 | 74 | 257 | 0.0 | 0.0 | 0.00 | 0.07 | 0.07 | 89 | 1012.0 |
| 20260906003500 | 74 | 257 | 0.0 | 0.0 | 0.00 | 0.07 | 0.07 | 89 | 1012.1 |
| 20260906003401 | 74 | 257 | 0.0 | 0.0 | 0.00 | 0.07 | 0.07 | 89 | 1012.1 |
| 20260906003300 | 74 | 257 | 0.0 | 0.0 | 0.00 | 0.07 | 0.07 | 89 | 1011.9 |
| 20260906003108 | 74 | 257 | 0.0 | 0.0 | 0.00 | 0.07 | 0.07 | 89 | 1011.1 |
| 20260906003101 | 74 | 257 | 0.0 | 0.0 | 0.00 | 0.07 | 0.07 | 89 | 1011.9 |
| 20260906003001 | 74 | 257 | 0.0 | 0.0 | 0.00 | 0.07 | 0.07 | 89 | 1011.9 |
| 20260906002901 | 74 | 257 | 0.0 | 0.0 | 0.00 | 0.07 | 0.07 | 89 | 1011.9 |
| 20260906002800 | 74 | 257 | 0.0 | 0.0 | 0.00 | 0.07 | 0.07 | 89 | 1011.9 |
| 20260906002700 | 74 | 257 | 0.0 | 0.0 | 0.00 | 0.07 | 0.07 | 89 | 1011.8 |
| 20260906002601 | 74 | 257 | 0.0 | 0.0 | 0.00 | 0.07 | 0.07 | 89 | 1011.8 |
| 20260906002501 | 74 | 257 | 0.0 | 0.0 | 0.00 | 0.07 | 0.07 | 89 | 1011.8 |
| 20260906002400 | 74 | 257 | 0.0 | 0.0 | 0.00 | 0.07 | 0.07 | 89 | 1011.9 |
| 20260906002300 | 74 | 257 | 0.0 | 0.0 | 0.00 | 0.07 | 0.07 | 89 | 1011.7 |
| 20260906002200 | 74 | 257 | 0.0 | 0.0 | 0.00 | 0.07 | 0.07 | 89 | 1011.7 |
| 20260906002100 | 74 | 257 | 0.0 | 0.0 | 0.00 | 0.07 | 0.07 | 89 | 1011.7 |
| 20260906001859 | 74 | 257 | 0.0 | 0.0 | 0.00 | 0.07 | 0.07 | 89 | 1011.8 |
| 20260906001800 | 74 | 257 | 0.0 | 0.0 | 0.00 | 0.07 | 0.07 | 89 | 1011.7 |
| 20260906001700 | 74 | 257 | 0.0 | 0.0 | 0.00 | 0.07 | 0.07 | 89 | 1011.7 |
| 20260906001601 | 74 | 257 | 0.0 | 0.0 | 0.00 | 0.07 | 0.07 | 89 | 1011.0 |
| 20260906001500 | 74 | 257 | 0.0 | 0.0 | 0.00 | 0.07 | 0.07 | 89 | 1011.7 |
| 20260906001300 | 75 | 257 | 0.0 | 0.0 | 0.00 | 0.07 | 0.07 | 89 | 1011.6 |
| 20260906001201 | 75 | 257 | 0.0 | 0.0 | 0.00 | 0.07 | 0.07 | 89 | 1011.6 |
| 20260906001100 | 75 | 257 | 0.0 | 0.0 | 0.00 | 0.07 | 0.07 | 89 | 1011.6 |
| 20260906000901 | 75 | 257 | 0.0 | 0.0 | 0.00 | 0.07 | 0.07 | 89 | 1011.5 |
| 20260906000759 | 75 | 257 | 0.0 | 0.0 | 0.00 | 0.07 | 0.07 | 89 | 1011.6 |
| 20260906000659 | 75 | 257 | 0.0 | 0.0 | 0.00 | 0.07 | 0.07 | 89 | 1011.6 |
| 20260906000601 | 75 | 257 | 0.0 | 0.0 | 0.00 | 0.07 | 0.07 | 89 | 1011.6 |
| 20260906000501 | 75 | 257 | 0.0 | 0.0 | 0.00 | 0.07 | 0.07 | 89 | 1011.6 |
| 20260906000400 | 75 | 257 | 0.0 | 0.0 | 0.00 | 0.07 | 0.07 | 89 | 1011.5 |
| 20260906000300 | 75 | 257 | 0.0 | 0.0 | 0.00 | 0.07 | 0.07 | 89 | 1011.5 |
| 20260906000100 | 75 | 257 | 0.0 | 0.0 | 0.00 | 0.07 | 0.07 | 89 | 1010.7 |
| 20260906000001 | 75 | 257 | 0.0 | 0.0 | 0.00 | 0.07 | 0.07 | 89 | 1010.7 |
| 20260905235859 | 75 | 257 | 0.0 | 0.0 | 0.00 | 0.07 | 0.07 | 89 | 1011.5 |
| 20260905235800 | 75 | 257 | 0.0 | 0.0 | 0.00 | 0.07 | 0.07 | 89 | 1011.6 |
| 20260905235559 | 75 | 257 | 0.0 | 0.0 | 0.00 | 0.07 | 0.07 | 89 | 1011.5 |
| 20260905235459 | 75 | 257 | 0.0 | 0.0 | 0.00 | 0.07 | 0.07 | 89 | 1011.4 |
| 20260905235359 | 75 | 257 | 0.0 | 0.0 | 0.00 | 0.07 | 0.07 | 89 | 1011.3 |
| 20260905235301 | 75 | 257 | 0.0 | 0.0 | 0.00 | 0.07 | 0.07 | 89 | 1011.3 |
| 20260905235159 | 75 | 257 | 0.0 | 0.0 | 0.00 | 0.07 | 0.07 | 89 | 1011.4 |
| 20260905234959 | 75 | 257 | 0.0 | 0.0 | 0.00 | 0.07 | 0.07 | 89 | 1011.3 |
| 20260905234858 | 75 | 257 | 0.0 | 0.0 | 0.00 | 0.07 | 0.07 | 89 | 1011.4 |
| 20260905234759 | 75 | 257 | 0.0 | 0.0 | 0.00 | 0.07 | 0.07 | 89 | 1011.5 |
| 20260905234659 | 75 | 257 | 0.0 | 0.0 | 0.00 | 0.07 | 0.07 | 89 | 1011.4 |
| 20260905234613 | 75 | 257 | 0.0 | 0.0 | 0.00 | 0.07 | 0.07 | 89 | 1010.6 |
| 20260905234159 | 76 | 257 | 0.0 | 0.0 | 0.00 | 0.07 | 0.07 | 89 | 1011.3 |
| 20260905233859 | 76 | 257 | 0.0 | 0.0 | 0.00 | 0.07 | 0.07 | 89 | 1011.3 |
| 20260905233759 | 76 | 257 | 0.0 | 0.0 | 0.00 | 0.07 | 0.07 | 89 | 1011.2 |
| 20260905233559 | 76 | 257 | 0.0 | 0.0 | 0.00 | 0.07 | 0.07 | 89 | 1011.4 |
| 20260905233459 | 76 | 257 | 0.0 | 0.0 | 0.00 | 0.07 | 0.07 | 89 | 1011.3 |
| 20260905233259 | 76 | 257 | 0.0 | 0.0 | 0.00 | 0.07 | 0.07 | 89 | 1011.2 |
| 20260905233159 | 76 | 257 | 0.0 | 0.0 | 0.00 | 0.07 | 0.07 | 89 | 1011.2 |
| 20260905233059 | 76 | 257 | 0.0 | 0.0 | 0.00 | 0.07 | 0.07 | 89 | 1011.1 |
| 20260905232959 | 76 | 257 | 0.0 | 0.0 | 0.00 | 0.07 | 0.07 | 89 | 1011.1 |
| 20260905232859 | 76 | 257 | 0.0 | 0.0 | 0.00 | 0.07 | 0.07 | 89 | 1010.9 |
| 20260905232759 | 76 | 257 | 0.0 | 0.0 | 0.00 | 0.07 | 0.07 | 89 | 1011.0 |
| 20260905232659 | 76 | 257 | 0.0 | 0.0 | 0.00 | 0.07 | 0.07 | 89 | 1011.0 |
| 20260905232559 | 76 | 257 | 0.0 | 0.0 | 0.00 | 0.07 | 0.07 | 89 | 1011.0 |
| 20260905232459 | 76 | 257 | 0.0 | 0.0 | 0.00 | 0.07 | 0.07 | 89 | 1011.1 |
| 20260905232359 | 76 | 257 | 0.0 | 0.0 | 0.00 | 0.07 | 0.07 | 89 | 1011.1 |
| 20260905232259 | 76 | 257 | 0.0 | 0.0 | 0.00 | 0.07 | 0.07 | 89 | 1011.0 |
| 20260905232158 | 76 | 257 | 0.0 | 0.0 | 0.00 | 0.07 | 0.07 | 89 | 1010.9 |
| 20260905232059 | 76 | 257 | 0.0 | 0.0 | 0.00 | 0.07 | 0.07 | 89 | 1011.0 |
| 20260905231959 | 76 | 257 | 0.0 | 0.0 | 0.00 | 0.07 | 0.07 | 89 | 1011.0 |
| 20260905231859 | 76 | 257 | 0.0 | 0.0 | 0.00 | 0.07 | 0.07 | 89 | 1010.9 |
| 20260905231759 | 76 | 257 | 0.0 | 0.0 | 0.00 | 0.07 | 0.07 | 89 | 1010.9 |
| 20260905231700 | 76 | 257 | 0.0 | 0.0 | 0.00 | 0.07 | 0.07 | 88 | 1010.9 |
| 20260905231600 | 76 | 257 | 0.0 | 0.0 | 0.00 | 0.07 | 0.07 | 88 | 1010.9 |
| 20260905231500 | 76 | 257 | 0.0 | 0.0 | 0.00 | 0.07 | 0.07 | 88 | 1010.9 |
| 20260905231359 | 76 | 257 | 0.0 | 0.0 | 0.00 | 0.07 | 0.07 | 88 | 1010.9 |
| 20260905231259 | 76 | 257 | 0.0 | 0.0 | 0.00 | 0.07 | 0.07 | 88 | 1010.8 |
| 20260905231159 | 76 | 257 | 0.0 | 0.0 | 0.00 | 0.07 | 0.07 | 88 | 1010.8 |
| 20260905231059 | 76 | 257 | 0.0 | 0.0 | 0.00 | 0.07 | 0.07 | 88 | 1010.8 |
| 20260905230958 | 76 | 257 | 0.0 | 0.0 | 0.00 | 0.07 | 0.07 | 88 | 1010.9 |
| 20260905230859 | 76 | 257 | 0.0 | 0.0 | 0.00 | 0.07 | 0.07 | 88 | 1010.8 |
| 20260905230759 | 76 | 257 | 0.0 | 0.0 | 0.00 | 0.07 | 0.07 | 88 | 1010.7 |
| 20260905230659 | 76 | 257 | 0.0 | 0.0 | 0.00 | 0.07 | 0.07 | 88 | 1010.7 |
| 20260905230558 | 76 | 257 | 0.0 | 0.0 | 0.00 | 0.07 | 0.07 | 88 | 1010.7 |
| 20260905230459 | 76 | 257 | 0.0 | 0.0 | 0.00 | 0.07 | 0.07 | 88 | 1010.6 |
| 20260905230400 | 76 | 257 | 0.0 | 0.0 | 0.00 | 0.07 | 0.07 | 89 | 1010.7 |
| 20260905230259 | 76 | 257 | 0.0 | 0.0 | 0.00 | 0.07 | 0.07 | 89 | 1010.6 |
| 20260905230159 | 76 | 257 | 0.0 | 0.0 | 0.00 | 0.07 | 0.07 | 89 | 1010.6 |
| 20260905230059 | 77 | 257 | 0.0 | 0.0 | 0.00 | 0.07 | 0.07 | 89 | 1009.6 |
| 20260905230001 | 77 | 257 | 0.0 | 0.0 | 0.00 | 0.07 | 0.07 | 89 | 1009.6 |
| 20260905225859 | 77 | 257 | 0.0 | 0.0 | 0.00 | 0.07 | 0.07 | 89 | 1010.5 |
| 20260905225800 | 77 | 257 | 0.0 | 0.0 | 0.00 | 0.07 | 0.07 | 89 | 1010.5 |
| 20260905225700 | 77 | 257 | 0.0 | 0.0 | 0.00 | 0.07 | 0.07 | 89 | 1010.5 |
| 20260905225600 | 77 | 257 | 0.0 | 0.0 | 0.00 | 0.07 | 0.07 | 89 | 1010.5 |
| 20260905225400 | 77 | 257 | 0.0 | 0.0 | 0.00 | 0.07 | 0.07 | 89 | 1010.6 |
| 20260905225301 | 77 | 257 | 0.0 | 0.0 | 0.00 | 0.07 | 0.07 | 89 | 1010.5 |
| 20260905225200 | 77 | 257 | 0.0 | 0.0 | 0.00 | 0.07 | 0.07 | 89 | 1010.4 |
| 20260905225059 | 77 | 257 | 0.0 | 0.0 | 0.00 | 0.07 | 0.07 | 89 | 1010.4 |
| 20260905225000 | 77 | 257 | 0.0 | 0.0 | 0.00 | 0.07 | 0.07 | 89 | 1010.4 |
| 20260905224900 | 77 | 257 | 0.0 | 0.0 | 0.00 | 0.07 | 0.07 | 89 | 1010.5 |
| 20260905224759 | 77 | 257 | 0.0 | 0.0 | 0.00 | 0.07 | 0.07 | 89 | 1010.5 |
| 20260905224700 | 77 | 257 | 0.0 | 0.0 | 0.00 | 0.07 | 0.07 | 89 | 1010.5 |
| 20260905224609 | 77 | 257 | 0.0 | 0.0 | 0.00 | 0.07 | 0.07 | 89 | 1009.6 |
| 20260905224459 | 77 | 257 | 0.0 | 0.0 | 0.00 | 0.07 | 0.07 | 89 | 1010.5 |
| 20260905224400 | 77 | 257 | 0.0 | 0.0 | 0.00 | 0.07 | 0.07 | 89 | 1010.5 |
| 20260905224300 | 77 | 257 | 0.0 | 0.0 | 0.00 | 0.07 | 0.07 | 89 | 1010.6 |
| 20260905224200 | 77 | 257 | 0.0 | 0.0 | 0.00 | 0.07 | 0.07 | 89 | 1010.7 |
| 20260905224100 | 77 | 257 | 0.0 | 0.0 | 0.00 | 0.07 | 0.07 | 89 | 1010.7 |
| 20260905224000 | 77 | 257 | 0.0 | 0.0 | 0.00 | 0.07 | 0.07 | 89 | 1010.6 |
| 20260905223901 | 77 | 257 | 0.0 | 0.0 | 0.00 | 0.07 | 0.07 | 89 | 1010.7 |
| 20260905223800 | 77 | 257 | 0.0 | 0.0 | 0.00 | 0.07 | 0.07 | 89 | 1010.6 |
| 20260905223600 | 77 | 257 | 0.0 | 0.0 | 0.00 | 0.07 | 0.07 | 90 | 1010.6 |
| 20260905223359 | 77 | 257 | 0.0 | 0.0 | 0.00 | 0.07 | 0.07 | 90 | 1010.6 |
| 20260905223300 | 77 | 257 | 0.0 | 0.0 | 0.00 | 0.07 | 0.07 | 90 | 1010.6 |
| 20260905223201 | 77 | 257 | 0.0 | 0.0 | 0.00 | 0.07 | 0.07 | 90 | 1010.7 |
| 20260905223100 | 77 | 257 | 0.0 | 0.0 | 0.00 | 0.07 | 0.07 | 90 | 1009.8 |
| 20260905222959 | 77 | 257 | 0.0 | 0.0 | 0.00 | 0.07 | 0.07 | 90 | 1010.7 |
| 20260905222900 | 77 | 257 | 0.0 | 0.0 | 0.00 | 0.07 | 0.07 | 90 | 1010.8 |
| 20260905222800 | 77 | 257 | 0.0 | 0.0 | 0.00 | 0.07 | 0.07 | 90 | 1010.8 |
| 20260905222701 | 76 | 257 | 0.0 | 0.0 | 0.00 | 0.07 | 0.07 | 90 | 1010.8 |
| 20260905222600 | 76 | 256 | 0.0 | 0.0 | 0.00 | 0.07 | 0.07 | 90 | 1010.9 |
| 20260905222500 | 76 | 256 | 0.0 | 0.0 | 0.00 | 0.07 | 0.07 | 90 | 1010.9 |
| 20260905222300 | 76 | 260 | 0.0 | 0.0 | 0.00 | 0.07 | 0.07 | 90 | 1010.9 |
| 20260905222000 | 76 | 260 | 0.0 | 0.0 | 0.00 | 0.07 | 0.07 | 90 | 1011.0 |
| 20260905221900 | 76 | 259 | 0.0 | 0.0 | 0.00 | 0.07 | 0.07 | 90 | 1011.1 |
| 20260905221759 | 76 | 260 | 0.0 | 0.0 | 0.00 | 0.07 | 0.07 | 90 | 1011.3 |
| 20260905221700 | 76 | 259 | 0.0 | 0.0 | 0.00 | 0.07 | 0.07 | 90 | 1011.1 |
| 20260905221601 | 76 | 260 | 0.0 | 0.0 | 0.00 | 0.07 | 0.07 | 90 | 1010.2 |
| 20260905221500 | 76 | 260 | 0.0 | 0.0 | 0.00 | 0.07 | 0.07 | 90 | 1010.9 |
| 20260905221359 | 76 | 260 | 0.0 | 0.0 | 0.00 | 0.07 | 0.07 | 90 | 1010.9 |
| 20260905221300 | 76 | 260 | 0.0 | 0.0 | 0.00 | 0.07 | 0.07 | 90 | 1010.9 |
| 20260905221200 | 76 | 260 | 0.0 | 0.0 | 0.00 | 0.07 | 0.07 | 90 | 1010.9 |
| 20260905221101 | 76 | 260 | 0.0 | 0.0 | 0.00 | 0.07 | 0.07 | 90 | 1010.9 |
| 20260905221000 | 76 | 260 | 0.0 | 0.0 | 0.00 | 0.07 | 0.07 | 90 | 1010.9 |
| 20260905220900 | 76 | 259 | 0.0 | 0.0 | 0.00 | 0.07 | 0.07 | 90 | 1011.0 |
| 20260905220759 | 75 | 260 | 0.0 | 0.0 | 0.00 | 0.07 | 0.07 | 90 | 1010.8 |
| 20260905220701 | 75 | 260 | 0.0 | 0.0 | 0.00 | 0.07 | 0.07 | 90 | 1010.8 |
| 20260905220600 | 75 | 260 | 0.0 | 0.0 | 0.00 | 0.07 | 0.07 | 90 | 1010.8 |
| 20260905220500 | 75 | 260 | 0.0 | 0.0 | 0.00 | 0.07 | 0.07 | 90 | 1010.9 |
| 20260905220400 | 75 | 260 | 0.0 | 0.0 | 0.00 | 0.07 | 0.07 | 90 | 1010.8 |
| 20260905220200 | 75 | 260 | 0.0 | 0.0 | 0.00 | 0.07 | 0.07 | 90 | 1010.6 |
| 20260905220100 | 75 | 260 | 0.0 | 0.0 | 0.00 | 0.07 | 0.07 | 90 | 1010.6 |
| 20260905220002 | 75 | 260 | 0.0 | 0.0 | 0.00 | 0.07 | 0.07 | 90 | 1010.6 |
| 20260905215801 | 75 | 260 | 0.0 | 0.0 | 0.00 | 0.07 | 0.07 | 90 | 1010.6 |
| 20260905215659 | 75 | 260 | 0.0 | 0.0 | 0.00 | 0.07 | 0.07 | 90 | 1010.6 |
| 20260905215558 | 75 | 260 | 0.0 | 0.0 | 0.00 | 0.07 | 0.07 | 90 | 1010.6 |
| 20260905215459 | 75 | 260 | 0.0 | 0.0 | 0.00 | 0.07 | 0.07 | 90 | 1010.6 |
| 20260905215258 | 75 | 260 | 0.0 | 0.0 | 0.00 | 0.07 | 0.07 | 90 | 1010.7 |
| 20260905215158 | 75 | 260 | 0.0 | 0.0 | 0.00 | 0.07 | 0.07 | 90 | 1010.6 |
| 20260905215059 | 75 | 260 | 0.0 | 0.0 | 0.00 | 0.07 | 0.07 | 90 | 1010.6 |
| 20260905214959 | 75 | 260 | 0.0 | 0.0 | 0.00 | 0.07 | 0.07 | 90 | 1010.6 |
| 20260905214858 | 75 | 260 | 0.0 | 0.0 | 0.00 | 0.07 | 0.07 | 90 | 1010.5 |
| 20260905214800 | 75 | 260 | 0.0 | 0.0 | 0.00 | 0.07 | 0.07 | 90 | 1010.6 |
| 20260905214659 | 75 | 260 | 0.0 | 0.0 | 0.00 | 0.07 | 0.07 | 90 | 1010.5 |
| 20260905214608 | 75 | 260 | 0.0 | 0.0 | 0.00 | 0.07 | 0.07 | 90 | 1009.6 |
| 20260905214558 | 75 | 260 | 0.0 | 0.0 | 0.00 | 0.07 | 0.07 | 90 | 1010.4 |
| 20260905214458 | 75 | 260 | 0.0 | 0.0 | 0.00 | 0.07 | 0.07 | 90 | 1010.4 |
| 20260905214259 | 75 | 260 | 0.0 | 0.0 | 0.00 | 0.07 | 0.07 | 90 | 1010.3 |
| 20260905214159 | 75 | 260 | 0.0 | 0.0 | 0.00 | 0.07 | 0.07 | 90 | 1010.4 |
| 20260905213959 | 75 | 260 | 0.0 | 0.0 | 0.00 | 0.07 | 0.07 | 90 | 1010.4 |
| 20260905213859 | 75 | 260 | 0.0 | 0.0 | 0.00 | 0.07 | 0.07 | 90 | 1010.4 |
| 20260905213758 | 75 | 260 | 0.0 | 0.0 | 0.00 | 0.07 | 0.07 | 90 | 1010.4 |
| 20260905213658 | 75 | 260 | 0.0 | 0.0 | 0.00 | 0.07 | 0.07 | 90 | 1010.4 |
| 20260905213558 | 74 | 260 | 0.0 | 0.0 | 0.00 | 0.07 | 0.07 | 90 | 1010.4 |
| 20260905213459 | 74 | 260 | 0.0 | 0.0 | 0.00 | 0.07 | 0.07 | 90 | 1010.4 |
| 20260905213358 | 74 | 260 | 0.0 | 0.0 | 0.00 | 0.07 | 0.07 | 90 | 1010.3 |
| 20260905213259 | 74 | 260 | 0.0 | 0.0 | 0.00 | 0.07 | 0.07 | 90 | 1010.3 |
| 20260905213159 | 74 | 260 | 0.0 | 0.0 | 0.00 | 0.07 | 0.07 | 89 | 1010.3 |
| 20260905213106 | 74 | 260 | 0.0 | 0.0 | 0.00 | 0.07 | 0.07 | 89 | 1009.3 |
| 20260905213059 | 74 | 260 | 0.0 | 0.0 | 0.00 | 0.07 | 0.07 | 89 | 1010.2 |
| 20260905212858 | 74 | 260 | 0.0 | 0.0 | 0.00 | 0.07 | 0.07 | 89 | 1010.4 |
| 20260905212759 | 74 | 259 | 0.0 | 0.0 | 0.00 | 0.07 | 0.07 | 89 | 1010.2 |
| 20260905212558 | 74 | 259 | 0.0 | 0.0 | 0.00 | 0.07 | 0.07 | 89 | 1010.3 |
| 20260905212459 | 74 | 259 | 0.0 | 0.0 | 0.00 | 0.07 | 0.07 | 89 | 1010.2 |
| 20260905212359 | 74 | 259 | 0.0 | 0.0 | 0.00 | 0.07 | 0.07 | 89 | 1010.2 |
| 20260905212200 | 73 | 260 | 0.0 | 0.0 | 0.00 | 0.07 | 0.07 | 89 | 1010.2 |
| 20260905212059 | 73 | 260 | 0.0 | 0.0 | 0.00 | 0.07 | 0.07 | 89 | 1010.3 |
| 20260905212000 | 73 | 260 | 0.0 | 0.0 | 0.00 | 0.07 | 0.07 | 89 | 1010.1 |
| 20260905211859 | 73 | 260 | 0.0 | 0.0 | 0.00 | 0.07 | 0.07 | 89 | 1010.2 |
| 20260905211759 | 73 | 260 | 0.0 | 0.0 | 0.00 | 0.07 | 0.07 | 89 | 1010.2 |
| 20260905211658 | 73 | 260 | 0.0 | 0.0 | 0.00 | 0.07 | 0.07 | 89 | 1010.0 |
| 20260905211601 | 73 | 260 | 0.0 | 0.0 | 0.00 | 0.07 | 0.07 | 89 | 1009.2 |
| 20260905211558 | 73 | 260 | 0.0 | 0.0 | 0.00 | 0.07 | 0.07 | 89 | 1010.1 |
| 20260905211459 | 73 | 260 | 0.0 | 0.0 | 0.00 | 0.07 | 0.07 | 89 | 1010.2 |
| 20260905211359 | 73 | 260 | 0.0 | 0.0 | 0.00 | 0.07 | 0.07 | 89 | 1010.3 |
| 20260905211200 | 73 | 260 | 0.0 | 0.0 | 0.00 | 0.07 | 0.07 | 89 | 1010.2 |
| 20260905211059 | 73 | 259 | 0.0 | 0.0 | 0.00 | 0.07 | 0.07 | 89 | 1010.3 |
| 20260905210959 | 73 | 260 | 0.0 | 0.0 | 0.00 | 0.07 | 0.07 | 89 | 1010.2 |
| 20260905210859 | 73 | 260 | 0.0 | 0.0 | 0.00 | 0.07 | 0.07 | 89 | 1010.3 |
| 20260905210758 | 73 | 260 | 0.0 | 0.0 | 0.00 | 0.07 | 0.07 | 89 | 1010.3 |
| 20260905210659 | 73 | 259 | 0.0 | 0.0 | 0.00 | 0.07 | 0.07 | 89 | 1010.2 |
| 20260905210559 | 73 | 259 | 0.0 | 0.0 | 0.00 | 0.07 | 0.07 | 89 | 1010.3 |
| 20260905210458 | 73 | 259 | 0.0 | 0.0 | 0.00 | 0.07 | 0.07 | 89 | 1010.4 |
| 20260905210359 | 73 | 259 | 0.0 | 0.0 | 0.00 | 0.07 | 0.07 | 89 | 1010.3 |
| 20260905210259 | 73 | 259 | 0.0 | 0.0 | 0.00 | 0.07 | 0.07 | 89 | 1010.4 |
| 20260905210159 | 73 | 259 | 0.0 | 0.0 | 0.00 | 0.07 | 0.07 | 89 | 1010.4 |
| 20260905210059 | 73 | 262 | 0.0 | 0.0 | 0.00 | 0.07 | 0.07 | 89 | 1009.4 |
| 20260905210000 | 73 | 262 | 0.0 | 0.0 | 0.00 | 0.07 | 0.07 | 89 | 1010.5 |
| 20260905205859 | 73 | 261 | 0.0 | 0.0 | 0.00 | 0.07 | 0.07 | 89 | 1010.4 |
| 20260905205759 | 73 | 281 | 0.0 | 0.0 | 0.00 | 0.07 | 0.07 | 89 | 1010.4 |
| 20260905205659 | 73 | 281 | 0.0 | 0.0 | 0.00 | 0.07 | 0.07 | 89 | 1010.4 |
| 20260905205559 | 73 | 283 | 0.0 | 0.0 | 0.00 | 0.07 | 0.07 | 89 | 1010.5 |
| 20260905205458 | 73 | 282 | 0.0 | 0.0 | 0.00 | 0.07 | 0.07 | 89 | 1010.4 |
| 20260905205359 | 73 | 283 | 0.0 | 0.0 | 0.00 | 0.07 | 0.07 | 89 | 1010.5 |
| 20260905205300 | 73 | 283 | 0.0 | 0.0 | 0.00 | 0.07 | 0.07 | 89 | 1010.4 |
| 20260905205159 | 73 | 282 | 0.0 | 0.0 | 0.00 | 0.07 | 0.07 | 89 | 1010.3 |
| 20260905204958 | 73 | 282 | 0.0 | 0.0 | 0.00 | 0.07 | 0.07 | 89 | 1010.4 |
| 20260905204859 | 73 | 282 | 0.0 | 0.0 | 0.00 | 0.07 | 0.07 | 89 | 1010.4 |
| 20260905204758 | 73 | 283 | 0.0 | 0.0 | 0.00 | 0.07 | 0.07 | 89 | 1010.3 |
| 20260905204658 | 73 | 282 | 0.0 | 0.0 | 0.00 | 0.07 | 0.07 | 89 | 1010.4 |
| 20260905204559 | 73 | 283 | 0.0 | 0.0 | 0.00 | 0.07 | 0.07 | 89 | 1009.4 |
| 20260905204459 | 73 | 282 | 0.0 | 0.0 | 0.00 | 0.07 | 0.07 | 89 | 1010.3 |
| 20260905204259 | 73 | 281 | 0.0 | 0.0 | 0.00 | 0.07 | 0.07 | 89 | 1010.4 |
| 20260905204059 | 73 | 281 | 0.0 | 0.0 | 0.00 | 0.07 | 0.07 | 89 | 1010.4 |
| 20260905203858 | 73 | 281 | 0.0 | 0.0 | 0.00 | 0.07 | 0.07 | 89 | 1010.5 |
| 20260905203759 | 73 | 281 | 0.0 | 0.0 | 0.00 | 0.07 | 0.07 | 89 | 1010.6 |
| 20260905203658 | 73 | 281 | 0.0 | 0.0 | 0.00 | 0.07 | 0.07 | 89 | 1010.5 |
| 20260905203559 | 73 | 281 | 0.0 | 0.0 | 0.00 | 0.07 | 0.07 | 89 | 1010.5 |
| 20260905203500 | 73 | 282 | 0.0 | 0.0 | 0.00 | 0.07 | 0.07 | 89 | 1010.5 |
| 20260905203358 | 73 | 281 | 0.0 | 0.0 | 0.00 | 0.07 | 0.07 | 89 | 1010.4 |
| 20260905203259 | 73 | 282 | 0.0 | 0.0 | 0.00 | 0.07 | 0.07 | 89 | 1010.4 |
| 20260905203200 | 73 | 282 | 0.0 | 0.0 | 0.00 | 0.07 | 0.07 | 89 | 1010.3 |
| 20260905203102 | 73 | 282 | 0.0 | 0.0 | 0.00 | 0.07 | 0.07 | 89 | 1009.3 |
| 20260905203059 | 73 | 282 | 0.0 | 0.0 | 0.00 | 0.07 | 0.07 | 89 | 1010.2 |
| 20260905202959 | 73 | 281 | 0.0 | 0.0 | 0.00 | 0.07 | 0.07 | 89 | 1010.2 |
| 20260905202900 | 73 | 281 | 0.0 | 0.0 | 0.00 | 0.07 | 0.07 | 89 | 1010.4 |
| 20260905202559 | 73 | 282 | 0.0 | 0.0 | 0.00 | 0.07 | 0.07 | 89 | 1010.2 |
| 20260905202459 | 73 | 277 | 0.0 | 0.0 | 0.01 | 0.07 | 0.07 | 89 | 1010.2 |
| 20260905202258 | 73 | 276 | 0.0 | 0.0 | 0.04 | 0.07 | 0.07 | 89 | 1010.2 |
| 20260905202159 | 73 | 276 | 0.0 | 0.0 | 0.05 | 0.07 | 0.07 | 89 | 1010.2 |
| 20260905202058 | 74 | 275 | 0.0 | 0.0 | 0.06 | 0.07 | 0.07 | 89 | 1010.2 |
| 20260905201959 | 74 | 276 | 0.0 | 0.0 | 0.07 | 0.07 | 0.07 | 89 | 1010.2 |
| 20260905201859 | 74 | 276 | 0.0 | 0.0 | 0.07 | 0.07 | 0.07 | 89 | 1010.2 |
| 20260905201758 | 74 | 277 | 0.0 | 0.0 | 0.07 | 0.07 | 0.07 | 89 | 1010.3 |
| 20260905201606 | 74 | 276 | 0.0 | 0.0 | 0.07 | 0.07 | 0.07 | 89 | 1009.3 |
| 20260905201558 | 74 | 276 | 0.0 | 0.0 | 0.07 | 0.07 | 0.07 | 89 | 1010.2 |
| 20260905201500 | 74 | 276 | 0.0 | 0.0 | 0.07 | 0.07 | 0.07 | 89 | 1010.2 |
| 20260905201359 | 74 | 276 | 0.0 | 0.0 | 0.07 | 0.07 | 0.07 | 89 | 1010.2 |
| 20260905201259 | 74 | 276 | 0.0 | 0.0 | 0.07 | 0.07 | 0.07 | 89 | 1010.3 |
| 20260905201159 | 74 | 276 | 0.0 | 0.0 | 0.07 | 0.07 | 0.07 | 89 | 1010.3 |
| 20260905201100 | 74 | 276 | 0.0 | 0.0 | 0.07 | 0.07 | 0.07 | 89 | 1010.3 |
| 20260905200859 | 74 | 276 | 0.0 | 0.0 | 0.07 | 0.07 | 0.07 | 89 | 1010.5 |
| 20260905200759 | 74 | 276 | 0.0 | 0.0 | 0.07 | 0.07 | 0.07 | 89 | 1010.5 |
| 20260905200659 | 74 | 276 | 0.0 | 0.0 | 0.07 | 0.07 | 0.07 | 89 | 1010.6 |
| 20260905200558 | 74 | 274 | 0.0 | 0.0 | 0.07 | 0.07 | 0.07 | 89 | 1010.5 |
| 20260905200459 | 74 | 276 | 0.0 | 0.0 | 0.07 | 0.07 | 0.07 | 89 | 1010.6 |
| 20260905200259 | 74 | 271 | 0.0 | 0.0 | 0.07 | 0.07 | 0.07 | 89 | 1010.8 |
| 20260905200159 | 74 | 271 | 0.0 | 0.0 | 0.07 | 0.07 | 0.07 | 89 | 1011.0 |
| 20260905200059 | 74 | 271 | 0.0 | 0.0 | 0.07 | 0.07 | 0.07 | 89 | 1011.1 |
| 20260905200000 | 74 | 271 | 0.0 | 0.0 | 0.07 | 0.07 | 0.07 | 89 | 1011.2 |
| 20260905195859 | 74 | 271 | 0.0 | 0.0 | 0.07 | 0.07 | 0.07 | 89 | 1011.4 |
| 20260905195800 | 74 | 271 | 0.0 | 0.0 | 0.07 | 0.07 | 0.07 | 89 | 1011.4 |
| 20260905195658 | 74 | 271 | 0.0 | 0.0 | 0.07 | 0.07 | 0.07 | 89 | 1011.4 |
| 20260905195558 | 74 | 271 | 0.0 | 0.0 | 0.07 | 0.07 | 0.07 | 89 | 1011.5 |
| 20260905195258 | 74 | 271 | 0.0 | 0.0 | 0.07 | 0.07 | 0.07 | 89 | 1011.6 |
| 20260905195158 | 75 | 271 | 0.0 | 0.0 | 0.07 | 0.07 | 0.07 | 89 | 1011.7 |
| 20260905195058 | 75 | 271 | 0.0 | 0.0 | 0.07 | 0.07 | 0.07 | 89 | 1011.7 |
| 20260905194959 | 75 | 271 | 0.0 | 0.0 | 0.07 | 0.07 | 0.07 | 89 | 1011.8 |
| 20260905194859 | 75 | 271 | 0.0 | 0.0 | 0.07 | 0.07 | 0.07 | 88 | 1011.7 |
| 20260905194659 | 75 | 271 | 0.0 | 0.0 | 0.07 | 0.07 | 0.07 | 88 | 1011.3 |
| 20260905194600 | 75 | 257 | 0.0 | 0.0 | 0.07 | 0.07 | 0.07 | 88 | 1010.3 |
| 20260905194459 | 75 | 244 | 0.0 | 0.0 | 0.07 | 0.07 | 0.07 | 88 | 1011.2 |
| 20260905194358 | 75 | 243 | 0.0 | 0.0 | 0.07 | 0.07 | 0.07 | 88 | 1011.3 |
| 20260905194259 | 75 | 255 | 0.0 | 0.0 | 0.07 | 0.07 | 0.07 | 88 | 1011.2 |
| 20260905194200 | 75 | 255 | 0.0 | 0.0 | 0.07 | 0.07 | 0.07 | 88 | 1011.2 |
| 20260905193959 | 75 | 251 | 0.0 | 0.0 | 0.07 | 0.07 | 0.07 | 88 | 1011.2 |
| 20260905193859 | 75 | 208 | 0.0 | 0.0 | 0.07 | 0.07 | 0.07 | 87 | 1011.2 |
| 20260905193758 | 76 | 201 | 0.0 | 0.0 | 0.07 | 0.07 | 0.07 | 87 | 1011.3 |
| 20260905193659 | 76 | 201 | 0.0 | 0.0 | 0.07 | 0.07 | 0.07 | 86 | 1011.4 |
| 20260905193559 | 76 | 201 | 0.0 | 0.0 | 0.07 | 0.07 | 0.07 | 86 | 1011.4 |
| 20260905193458 | 76 | 201 | 0.0 | 0.0 | 0.07 | 0.07 | 0.07 | 86 | 1011.3 |
| 20260905193359 | 76 | 201 | 0.0 | 0.0 | 0.07 | 0.07 | 0.07 | 86 | 1011.4 |
| 20260905193159 | 76 | 201 | 0.0 | 0.0 | 0.07 | 0.07 | 0.07 | 85 | 1011.5 |
| 20260905193059 | 77 | 201 | 0.0 | 0.0 | 0.07 | 0.07 | 0.07 | 84 | 1010.5 |
| 20260905192859 | 77 | 167 | 0.0 | 0.0 | 0.07 | 0.07 | 0.07 | 83 | 1011.5 |
| 20260905192759 | 77 | 168 | 0.0 | 0.0 | 0.07 | 0.07 | 0.07 | 83 | 1011.7 |
| 20260905192559 | 77 | 167 | 0.0 | 0.9 | 0.07 | 0.07 | 0.07 | 81 | 1011.7 |
| 20260905192400 | 78 | 168 | 0.0 | 0.9 | 0.05 | 0.05 | 0.05 | 80 | 1011.8 |
| 20260905192258 | 78 | 167 | 0.0 | 0.9 | 0.03 | 0.03 | 0.03 | 80 | 1011.8 |
| 20260905192159 | 78 | 167 | 0.0 | 0.9 | 0.02 | 0.02 | 0.02 | 80 | 1011.6 |
| 20260905192059 | 79 | 166 | 0.0 | 0.9 | 0.01 | 0.01 | 0.01 | 79 | 1011.5 |
| 20260905192000 | 79 | 168 | 0.0 | 0.9 | 0.00 | 0.00 | 0.00 | 78 | 1011.6 |
| 20260905191759 | 80 | 200 | 0.0 | 0.9 | 0.00 | 0.00 | 0.00 | 77 | 1011.3 |
| 20260905191700 | 80 | 161 | 0.0 | 0.9 | 0.00 | 0.00 | 0.00 | 77 | 1011.1 |
| 20260905191613 | 80 | 41 | 0.0 | 0.9 | 0.00 | 0.00 | 0.00 | 76 | 1010.2 |
| 20260905191600 | 80 | 41 | 0.0 | 0.9 | 0.00 | 0.00 | 0.00 | 76 | 1011.2 |
| 20260905191459 | 80 | 15 | 0.0 | 0.9 | 0.00 | 0.00 | 0.00 | 76 | 1011.2 |
| 20260905191401 | 81 | 15 | 0.0 | 0.9 | 0.00 | 0.00 | 0.00 | 75 | 1011.2 |
| 20260905191258 | 81 | 14 | 0.0 | 0.9 | 0.00 | 0.00 | 0.00 | 74 | 1011.1 |
| 20260905191158 | 81 | 95 | 0.0 | 0.9 | 0.00 | 0.00 | 0.00 | 74 | 1011.2 |
| 20260905191058 | 81 | 99 | 0.0 | 0.9 | 0.00 | 0.00 | 0.00 | 73 | 1011.3 |
| 20260905190959 | 81 | 94 | 0.0 | 0.9 | 0.00 | 0.00 | 0.00 | 73 | 1011.3 |
| 20260905190858 | 81 | 78 | 0.0 | 0.9 | 0.00 | 0.00 | 0.00 | 72 | 1011.4 |
| 20260905190759 | 82 | 115 | 0.0 | 0.9 | 0.00 | 0.00 | 0.00 | 72 | 1011.3 |
| 20260905190658 | 82 | 12 | 0.0 | 0.0 | 0.00 | 0.00 | 0.00 | 71 | 1011.4 |
| 20260905190558 | 82 | 124 | 0.0 | 0.0 | 0.00 | 0.00 | 0.00 | 71 | 1011.5 |
| 20260905190459 | 82 | 101 | 0.0 | 0.0 | 0.00 | 0.00 | 0.00 | 71 | 1011.5 |
| 20260905190258 | 82 | 347 | 0.0 | 0.0 | 0.00 | 0.00 | 0.00 | 71 | 1011.4 |
| 20260905190159 | 83 | 84 | 0.0 | 0.9 | 0.00 | 0.00 | 0.00 | 70 | 1011.4 |
| 20260905190059 | 83 | 129 | 0.0 | 0.9 | 0.00 | 0.00 | 0.00 | 70 | 1011.5 |
| 20260905190003 | 83 | 108 | 0.0 | 0.9 | 0.00 | 0.00 | 0.00 | 70 | 1010.5 |
| 20260905190000 | 83 | 108 | 0.0 | 0.9 | 0.00 | 0.00 | 0.00 | 70 | 1011.5 |
| 20260905185758 | 84 | 339 | 0.0 | 0.9 | 0.00 | 0.00 | 0.00 | 69 | 1011.5 |
| 20260905185659 | 84 | 326 | 0.0 | 0.9 | 0.00 | 0.00 | 0.00 | 69 | 1011.6 |
| 20260905185558 | 85 | 339 | 0.0 | 0.9 | 0.00 | 0.00 | 0.00 | 68 | 1011.8 |
| 20260905185459 | 85 | 335 | 0.0 | 0.9 | 0.00 | 0.00 | 0.00 | 67 | 1011.7 |
| 20260905185400 | 86 | 318 | 0.0 | 0.9 | 0.00 | 0.00 | 0.00 | 66 | 1011.9 |
| 20260905185259 | 86 | 8 | 0.0 | 0.9 | 0.00 | 0.00 | 0.00 | 66 | 1011.9 |
| 20260905185200 | 87 | 80 | 0.0 | 0.9 | 0.00 | 0.00 | 0.00 | 65 | 1011.6 |
| 20260905185059 | 87 | 333 | 0.0 | 0.9 | 0.00 | 0.00 | 0.00 | 64 | 1011.4 |
| 20260905184959 | 88 | 331 | 0.0 | 0.9 | 0.00 | 0.00 | 0.00 | 63 | 1011.4 |
| 20260905184800 | 89 | 352 | 0.0 | 0.9 | 0.00 | 0.00 | 0.00 | 62 | 1011.2 |
| 20260905184658 | 90 | 344 | 0.0 | 0.9 | 0.00 | 0.00 | 0.00 | 62 | 1011.2 |
| 20260905184609 | 90 | 155 | 0.0 | 0.9 | 0.00 | 0.00 | 0.00 | 61 | 1010.3 |
| 20260905184559 | 90 | 155 | 0.0 | 0.9 | 0.00 | 0.00 | 0.00 | 61 | 1011.3 |
| 20260905184459 | 91 | 350 | 0.0 | 0.9 | 0.00 | 0.00 | 0.00 | 60 | 1011.1 |
| 20260905184359 | 92 | 356 | 0.0 | 0.9 | 0.00 | 0.00 | 0.00 | 59 | 1011.1 |
| 20260905184159 | 93 | 340 | 0.0 | 0.9 | 0.00 | 0.00 | 0.00 | 59 | 1011.0 |
| 20260905184058 | 93 | 337 | 0.0 | 0.9 | 0.00 | 0.00 | 0.00 | 59 | 1010.7 |
| 20260905183959 | 93 | 345 | 0.0 | 0.9 | 0.00 | 0.00 | 0.00 | 60 | 1010.4 |
| 20260905183859 | 93 | 308 | 0.0 | 0.9 | 0.00 | 0.00 | 0.00 | 58 | 1010.3 |
| 20260905183759 | 93 | 300 | 0.0 | 0.9 | 0.00 | 0.00 | 0.00 | 58 | 1010.3 |
| 20260905183659 | 93 | 318 | 0.0 | 0.9 | 0.00 | 0.00 | 0.00 | 58 | 1010.3 |
| 20260905183558 | 93 | 231 | 0.0 | 0.9 | 0.00 | 0.00 | 0.00 | 58 | 1010.3 |
| 20260905183500 | 93 | 333 | 0.0 | 0.9 | 0.00 | 0.00 | 0.00 | 58 | 1010.3 |
| 20260905183358 | 93 | 242 | 0.0 | 0.9 | 0.00 | 0.00 | 0.00 | 58 | 1010.2 |
| 20260905183258 | 93 | 249 | 0.0 | 0.9 | 0.00 | 0.00 | 0.00 | 58 | 1010.2 |
| 20260905183158 | 93 | 239 | 0.0 | 0.9 | 0.00 | 0.00 | 0.00 | 57 | 1010.2 |
| 20260905183101 | 94 | 278 | 0.0 | 0.9 | 0.00 | 0.00 | 0.00 | 57 | 1009.2 |
| 20260905183059 | 94 | 278 | 0.0 | 0.9 | 0.00 | 0.00 | 0.00 | 57 | 1010.2 |
| 20260905182958 | 94 | 281 | 0.0 | 0.0 | 0.00 | 0.00 | 0.00 | 57 | 1010.2 |
| 20260905182859 | 94 | 290 | 0.0 | 0.0 | 0.00 | 0.00 | 0.00 | 57 | 1010.2 |
| 20260905182659 | 94 | 280 | 0.0 | 0.0 | 0.00 | 0.00 | 0.00 | 58 | 1010.2 |
| 20260905182459 | 94 | 242 | 0.0 | 0.0 | 0.00 | 0.00 | 0.00 | 57 | 1010.1 |
| 20260905182358 | 94 | 243 | 0.0 | 0.0 | 0.00 | 0.00 | 0.00 | 57 | 1010.2 |
| 20260905182059 | 94 | 253 | 0.0 | 0.0 | 0.00 | 0.00 | 0.00 | 58 | 1010.3 |
| 20260905181959 | 94 | 256 | 0.0 | 0.0 | 0.00 | 0.00 | 0.00 | 58 | 1010.3 |
| 20260905181858 | 94 | 356 | 0.0 | 0.0 | 0.00 | 0.00 | 0.00 | 57 | 1010.3 |
| 20260905181759 | 94 | 270 | 0.0 | 0.0 | 0.00 | 0.00 | 0.00 | 57 | 1010.1 |
| 20260905181659 | 94 | 271 | 0.0 | 0.0 | 0.00 | 0.00 | 0.00 | 57 | 1010.3 |
| 20260905181559 | 94 | 258 | 0.0 | 0.0 | 0.00 | 0.00 | 0.00 | 58 | 1009.1 |
| 20260905181359 | 94 | 143 | 0.0 | 0.0 | 0.00 | 0.00 | 0.00 | 58 | 1010.2 |
| 20260905181259 | 94 | 245 | 0.0 | 0.0 | 0.00 | 0.00 | 0.00 | 58 | 1010.1 |
| 20260905181158 | 94 | 242 | 0.0 | 0.0 | 0.00 | 0.00 | 0.00 | 57 | 1010.3 |
| 20260905181059 | 94 | 224 | 0.0 | 0.0 | 0.00 | 0.00 | 0.00 | 58 | 1010.2 |
| 20260905180959 | 94 | 331 | 0.0 | 0.0 | 0.00 | 0.00 | 0.00 | 58 | 1010.3 |
| 20260905180858 | 94 | 330 | 0.0 | 0.0 | 0.00 | 0.00 | 0.00 | 59 | 1010.4 |
| 20260905180759 | 94 | 262 | 0.0 | 0.0 | 0.00 | 0.00 | 0.00 | 57 | 1010.4 |
| 20260905180659 | 94 | 272 | 0.0 | 0.0 | 0.00 | 0.00 | 0.00 | 59 | 1010.4 |
| 20260905180558 | 94 | 254 | 0.0 | 0.0 | 0.00 | 0.00 | 0.00 | 58 | 1010.4 |
| 20260905180459 | 94 | 260 | 0.0 | 0.0 | 0.00 | 0.00 | 0.00 | 58 | 1010.4 |
| 20260905180359 | 94 | 293 | 0.0 | 0.0 | 0.00 | 0.00 | 0.00 | 56 | 1010.5 |
| 20260905180259 | 94 | 264 | 0.0 | 0.0 | 0.00 | 0.00 | 0.00 | 56 | 1010.6 |
| 20260905180158 | 94 | 255 | 0.0 | 0.0 | 0.00 | 0.00 | 0.00 | 56 | 1010.7 |
| 20260905180059 | 94 | 271 | 0.0 | 0.0 | 0.00 | 0.00 | 0.00 | 56 | 1010.6 |
| 20260905175858 | 94 | 240 | 0.0 | 0.0 | 0.00 | 0.00 | 0.00 | 55 | 1010.7 |
| 20260905175759 | 94 | 240 | 0.0 | 0.0 | 0.00 | 0.00 | 0.00 | 56 | 1010.8 |
| 20260905175659 | 94 | 330 | 0.0 | 0.0 | 0.00 | 0.00 | 0.00 | 57 | 1010.7 |
| 20260905175359 | 94 | 269 | 0.0 | 0.0 | 0.00 | 0.00 | 0.00 | 56 | 1010.8 |
| 20260905175259 | 94 | 257 | 0.0 | 0.0 | 0.00 | 0.00 | 0.00 | 57 | 1010.9 |
| 20260905175159 | 94 | 252 | 0.0 | 0.0 | 0.00 | 0.00 | 0.00 | 57 | 1010.9 |
| 20260905175100 | 94 | 256 | 0.0 | 0.0 | 0.00 | 0.00 | 0.00 | 56 | 1011.0 |
| 20260905174958 | 94 | 245 | 0.0 | 0.0 | 0.00 | 0.00 | 0.00 | 57 | 1011.0 |
| 20260905174900 | 94 | 326 | 0.0 | 0.0 | 0.00 | 0.00 | 0.00 | 58 | 1011.0 |
| 20260905174758 | 94 | 260 | 0.0 | 0.0 | 0.00 | 0.00 | 0.00 | 57 | 1011.0 |
| 20260905174606 | 94 | 332 | 0.0 | 0.0 | 0.00 | 0.00 | 0.00 | 58 | 1010.0 |
| 20260905174559 | 94 | 332 | 0.0 | 0.0 | 0.00 | 0.00 | 0.00 | 58 | 1011.0 |
| 20260905174459 | 94 | 259 | 0.0 | 0.0 | 0.00 | 0.00 | 0.00 | 57 | 1011.1 |
| 20260905174359 | 94 | 326 | 0.0 | 0.0 | 0.00 | 0.00 | 0.00 | 57 | 1011.1 |
| 20260905174300 | 94 | 258 | 0.0 | 0.0 | 0.00 | 0.00 | 0.00 | 59 | 1011.1 |
| 20260905174158 | 94 | 262 | 0.0 | 0.0 | 0.00 | 0.00 | 0.00 | 59 | 1011.2 |
| 20260905173959 | 93 | 262 | 0.0 | 0.0 | 0.00 | 0.00 | 0.00 | 58 | 1011.3 |
| 20260905173758 | 93 | 240 | 0.0 | 0.0 | 0.00 | 0.00 | 0.00 | 57 | 1011.5 |
| 20260905173659 | 93 | 245 | 0.0 | 0.0 | 0.00 | 0.00 | 0.00 | 57 | 1011.5 |
| 20260905173459 | 93 | 250 | 0.0 | 0.0 | 0.00 | 0.00 | 0.00 | 57 | 1011.6 |
| 20260905173259 | 93 | 245 | 0.0 | 0.0 | 0.00 | 0.00 | 0.00 | 57 | 1011.7 |
| 20260905173109 | 93 | 150 | 0.0 | 0.0 | 0.00 | 0.00 | 0.00 | 57 | 1010.8 |
| 20260905173059 | 93 | 150 | 0.0 | 0.0 | 0.00 | 0.00 | 0.00 | 57 | 1011.8 |
| 20260905172958 | 93 | 259 | 0.0 | 0.0 | 0.00 | 0.00 | 0.00 | 58 | 1011.8 |
| 20260905172858 | 93 | 264 | 0.0 | 0.0 | 0.00 | 0.00 | 0.00 | 58 | 1011.8 |
| 20260905172758 | 93 | 255 | 0.0 | 0.0 | 0.00 | 0.00 | 0.00 | 57 | 1011.8 |
| 20260905172600 | 93 | 253 | 0.0 | 0.0 | 0.00 | 0.00 | 0.00 | 58 | 1011.8 |
| 20260905172459 | 93 | 241 | 0.0 | 0.0 | 0.00 | 0.00 | 0.00 | 57 | 1011.8 |
| 20260905172401 | 93 | 253 | 0.0 | 0.0 | 0.00 | 0.00 | 0.00 | 58 | 1011.8 |
| 20260905172259 | 93 | 273 | 0.0 | 0.0 | 0.00 | 0.00 | 0.00 | 59 | 1011.8 |
| 20260905172059 | 93 | 258 | 0.0 | 0.0 | 0.00 | 0.00 | 0.00 | 58 | 1011.8 |
| 20260905171959 | 93 | 250 | 0.0 | 0.0 | 0.00 | 0.00 | 0.00 | 57 | 1011.9 |
| 20260905171758 | 93 | 252 | 0.0 | 0.0 | 0.00 | 0.00 | 0.00 | 57 | 1011.8 |
| 20260905171600 | 93 | 278 | 0.0 | 0.0 | 0.00 | 0.00 | 0.00 | 57 | 1010.8 |
| 20260905171458 | 93 | 273 | 0.0 | 0.0 | 0.00 | 0.00 | 0.00 | 56 | 1011.8 |
| 20260905171359 | 93 | 274 | 0.0 | 0.0 | 0.00 | 0.00 | 0.00 | 57 | 1011.8 |
| 20260905171259 | 93 | 245 | 0.0 | 0.0 | 0.00 | 0.00 | 0.00 | 57 | 1011.8 |
| 20260905171158 | 93 | 246 | 0.0 | 0.0 | 0.00 | 0.00 | 0.00 | 56 | 1011.9 |
| 20260905171059 | 94 | 246 | 0.0 | 0.0 | 0.00 | 0.00 | 0.00 | 56 | 1012.0 |
| 20260905170958 | 94 | 229 | 0.0 | 0.0 | 0.00 | 0.00 | 0.00 | 57 | 1011.8 |
| 20260905170659 | 94 | 343 | 0.0 | 0.0 | 0.00 | 0.00 | 0.00 | 57 | 1012.0 |
| 20260905170559 | 94 | 343 | 0.0 | 0.0 | 0.00 | 0.00 | 0.00 | 57 | 1012.1 |
| 20260905170459 | 94 | 340 | 0.0 | 0.0 | 0.00 | 0.00 | 0.00 | 57 | 1012.1 |
| 20260905170359 | 94 | 341 | 0.0 | 0.0 | 0.00 | 0.00 | 0.00 | 58 | 1011.9 |
| 20260905170259 | 94 | 352 | 0.0 | 0.0 | 0.00 | 0.00 | 0.00 | 57 | 1011.9 |
| 20260905170159 | 93 | 327 | 0.0 | 0.0 | 0.00 | 0.00 | 0.00 | 56 | 1012.0 |
| 20260905170100 | 93 | 95 | 0.0 | 0.0 | 0.00 | 0.00 | 0.00 | 58 | 1011.0 |
| 20260905170059 | 93 | 95 | 0.0 | 0.0 | 0.00 | 0.00 | 0.00 | 58 | 1012.0 |
| 20260905165959 | 93 | 344 | 0.0 | 0.0 | 0.00 | 0.00 | 0.00 | 60 | 1012.1 |
| 20260905165759 | 93 | 254 | 0.0 | 0.0 | 0.00 | 0.00 | 0.00 | 57 | 1012.1 |
| 20260905165659 | 93 | 253 | 0.0 | 0.0 | 0.00 | 0.00 | 0.00 | 58 | 1012.1 |
| 20260905165558 | 93 | 252 | 0.0 | 0.0 | 0.00 | 0.00 | 0.00 | 58 | 1012.2 |
| 20260905165458 | 93 | 253 | 0.0 | 0.0 | 0.00 | 0.00 | 0.00 | 59 | 1012.2 |
| 20260905165358 | 93 | 266 | 0.0 | 0.0 | 0.00 | 0.00 | 0.00 | 58 | 1012.2 |
| 20260905165259 | 93 | 259 | 0.0 | 0.0 | 0.00 | 0.00 | 0.00 | 57 | 1012.1 |
| 20260905165159 | 94 | 274 | 0.0 | 0.0 | 0.00 | 0.00 | 0.00 | 56 | 1012.2 |
| 20260905165059 | 94 | 245 | 0.0 | 0.0 | 0.00 | 0.00 | 0.00 | 56 | 1012.2 |
| 20260905164959 | 94 | 289 | 0.0 | 0.0 | 0.00 | 0.00 | 0.00 | 55 | 1012.2 |
| 20260905164858 | 94 | 255 | 0.0 | 0.0 | 0.00 | 0.00 | 0.00 | 56 | 1012.2 |
| 20260905164759 | 94 | 255 | 0.0 | 0.0 | 0.00 | 0.00 | 0.00 | 56 | 1012.3 |
| 20260905164559 | 94 | 326 | 0.0 | 0.0 | 0.00 | 0.00 | 0.00 | 57 | 1012.3 |
| 20260905164500 | 94 | 326 | 0.0 | 0.0 | 0.00 | 0.00 | 0.00 | 57 | 1012.3 |
| 20260905164358 | 94 | 326 | 0.0 | 0.0 | 0.00 | 0.00 | 0.00 | 57 | 1012.3 |
| 20260905164259 | 94 | 326 | 0.0 | 0.0 | 0.00 | 0.00 | 0.00 | 56 | 1012.2 |
| 20260905164159 | 94 | 326 | 0.0 | 0.0 | 0.00 | 0.00 | 0.00 | 56 | 1012.3 |
| 20260905164058 | 94 | 326 | 0.0 | 0.0 | 0.00 | 0.00 | 0.00 | 58 | 1012.4 |
| 20260905163959 | 94 | 30 | 0.0 | 0.0 | 0.00 | 0.00 | 0.00 | 58 | 1012.4 |
| 20260905163858 | 94 | 290 | 0.0 | 0.0 | 0.00 | 0.00 | 0.00 | 57 | 1012.4 |
| 20260905163758 | 94 | 239 | 0.0 | 0.0 | 0.00 | 0.00 | 0.00 | 57 | 1012.5 |
| 20260905163659 | 94 | 263 | 0.0 | 0.0 | 0.00 | 0.00 | 0.00 | 57 | 1012.5 |
| 20260905163459 | 94 | 298 | 0.0 | 0.0 | 0.00 | 0.00 | 0.00 | 59 | 1012.5 |
| 20260905163359 | 93 | 301 | 0.0 | 0.0 | 0.00 | 0.00 | 0.00 | 57 | 1012.5 |
| 20260905163258 | 93 | 324 | 0.0 | 0.0 | 0.00 | 0.00 | 0.00 | 57 | 1012.5 |
| 20260905163158 | 93 | 256 | 0.0 | 0.0 | 0.00 | 0.00 | 0.00 | 57 | 1012.6 |
| 20260905163105 | 93 | 273 | 0.0 | 0.0 | 0.00 | 0.00 | 0.00 | 58 | 1011.6 |
| 20260905163059 | 93 | 273 | 0.0 | 0.0 | 0.00 | 0.00 | 0.00 | 58 | 1012.6 |
| 20260905162959 | 93 | 276 | 0.0 | 0.0 | 0.00 | 0.00 | 0.00 | 57 | 1012.6 |
| 20260905162859 | 94 | 243 | 0.0 | 0.0 | 0.00 | 0.00 | 0.00 | 57 | 1012.6 |
| 20260905162358 | 94 | 260 | 0.0 | 0.0 | 0.00 | 0.00 | 0.00 | 56 | 1012.7 |
| 20260905162258 | 94 | 270 | 0.0 | 0.0 | 0.00 | 0.00 | 0.00 | 57 | 1012.7 |
| 20260905162059 | 95 | 247 | 0.0 | 0.0 | 0.00 | 0.00 | 0.00 | 56 | 1012.6 |
| 20260905161958 | 95 | 242 | 0.0 | 0.0 | 0.00 | 0.00 | 0.00 | 57 | 1012.7 |
| 20260905161859 | 95 | 262 | 0.0 | 0.0 | 0.00 | 0.00 | 0.00 | 57 | 1012.7 |
| 20260905161558 | 94 | 267 | 0.0 | 0.0 | 0.00 | 0.00 | 0.00 | 58 | 1011.7 |
| 20260905161459 | 94 | 262 | 0.0 | 0.0 | 0.00 | 0.00 | 0.00 | 59 | 1012.8 |
| 20260905161358 | 94 | 231 | 0.0 | 0.0 | 0.00 | 0.00 | 0.00 | 58 | 1012.7 |
| 20260905161300 | 94 | 160 | 0.0 | 0.0 | 0.00 | 0.00 | 0.00 | 58 | 1012.7 |
| 20260905161058 | 94 | 35 | 0.0 | 0.0 | 0.00 | 0.00 | 0.00 | 59 | 1012.8 |
| 20260905160959 | 94 | 347 | 0.0 | 0.0 | 0.00 | 0.00 | 0.00 | 59 | 1012.7 |
| 20260905160901 | 94 | 346 | 0.0 | 0.0 | 0.00 | 0.00 | 0.00 | 57 | 1012.7 |
| 20260905160658 | 94 | 360 | 0.0 | 0.0 | 0.00 | 0.00 | 0.00 | 58 | 1012.8 |
| 20260905160559 | 94 | 343 | 0.0 | 0.0 | 0.00 | 0.00 | 0.00 | 59 | 1012.8 |
| 20260905160500 | 94 | 340 | 0.0 | 0.0 | 0.00 | 0.00 | 0.00 | 58 | 1012.8 |
| 20260905160400 | 94 | 338 | 0.0 | 0.0 | 0.00 | 0.00 | 0.00 | 60 | 1012.8 |
| 20260905160300 | 94 | 340 | 0.0 | 0.0 | 0.00 | 0.00 | 0.00 | 58 | 1012.8 |
| 20260905160159 | 94 | 345 | 0.0 | 0.0 | 0.00 | 0.00 | 0.00 | 59 | 1012.7 |
| 20260905160059 | 94 | 340 | 0.0 | 0.0 | 0.00 | 0.00 | 0.00 | 60 | 1011.8 |
| 20260905160000 | 93 | 340 | 0.0 | 0.0 | 0.00 | 0.00 | 0.00 | 59 | 1012.7 |
| 20260905155858 | 93 | 340 | 0.0 | 0.0 | 0.00 | 0.00 | 0.00 | 58 | 1012.9 |
| 20260905155757 | 93 | 346 | 0.0 | 0.0 | 0.00 | 0.00 | 0.00 | 59 | 1012.8 |
| 20260905155659 | 93 | 343 | 0.0 | 0.0 | 0.00 | 0.00 | 0.00 | 60 | 1012.7 |
| 20260905155459 | 93 | 345 | 0.0 | 0.0 | 0.00 | 0.00 | 0.00 | 61 | 1012.8 |
| 20260905155258 | 93 | 30 | 0.0 | 0.0 | 0.00 | 0.00 | 0.00 | 59 | 1013.0 |
| 20260905155159 | 93 | 335 | 0.0 | 0.0 | 0.00 | 0.00 | 0.00 | 61 | 1012.9 |
| 20260905155058 | 93 | 314 | 0.0 | 0.0 | 0.00 | 0.00 | 0.00 | 62 | 1013.0 |
| 20260905154958 | 92 | 280 | 0.0 | 0.0 | 0.00 | 0.00 | 0.00 | 64 | 1013.0 |
| 20260905154858 | 92 | 280 | 0.0 | 0.0 | 0.00 | 0.00 | 0.00 | 64 | 1013.0 |
| 20260905154800 | 92 | 280 | 0.0 | 0.0 | 0.00 | 0.00 | 0.00 | 63 | 1012.9 |
| 20260905154657 | 92 | 269 | 0.0 | 0.0 | 0.00 | 0.00 | 0.00 | 61 | 1013.0 |
| 20260905154559 | 92 | 262 | 0.0 | 0.0 | 0.00 | 0.00 | 0.00 | 60 | 1013.0 |
| 20260905154459 | 92 | 249 | 0.0 | 0.0 | 0.00 | 0.00 | 0.00 | 61 | 1013.0 |
| 20260905154358 | 92 | 243 | 0.0 | 0.0 | 0.00 | 0.00 | 0.00 | 60 | 1013.0 |
| 20260905154258 | 92 | 255 | 0.0 | 0.0 | 0.00 | 0.00 | 0.00 | 60 | 1012.8 |
| 20260905154158 | 92 | 271 | 0.0 | 0.0 | 0.00 | 0.00 | 0.00 | 60 | 1013.0 |
| 20260905154058 | 92 | 232 | 0.0 | 0.0 | 0.00 | 0.00 | 0.00 | 59 | 1013.0 |
| 20260905153959 | 92 | 242 | 0.0 | 0.0 | 0.00 | 0.00 | 0.00 | 59 | 1013.0 |
| 20260905153859 | 92 | 241 | 0.0 | 0.0 | 0.00 | 0.00 | 0.00 | 60 | 1013.0 |
| 20260905153758 | 92 | 238 | 0.0 | 0.0 | 0.00 | 0.00 | 0.00 | 60 | 1013.0 |
| 20260905153657 | 92 | 125 | 0.0 | 0.0 | 0.00 | 0.00 | 0.00 | 60 | 1013.0 |
| 20260905153559 | 92 | 345 | 0.0 | 0.0 | 0.00 | 0.00 | 0.00 | 59 | 1013.0 |
| 20260905153500 | 92 | 345 | 0.0 | 0.0 | 0.00 | 0.00 | 0.00 | 61 | 1013.0 |
| 20260905153400 | 92 | 323 | 0.0 | 0.0 | 0.00 | 0.00 | 0.00 | 63 | 1012.9 |
| 20260905153159 | 92 | 323 | 0.0 | 0.0 | 0.00 | 0.00 | 0.00 | 62 | 1013.1 |
| 20260905153059 | 91 | 323 | 0.0 | 0.0 | 0.00 | 0.00 | 0.00 | 63 | 1012.2 |
| 20260905152858 | 91 | 284 | 0.0 | 0.0 | 0.00 | 0.00 | 0.00 | 64 | 1013.2 |
| 20260905152759 | 91 | 278 | 0.0 | 0.0 | 0.00 | 0.00 | 0.00 | 65 | 1013.1 |
| 20260905152658 | 91 | 278 | 0.0 | 0.0 | 0.00 | 0.00 | 0.00 | 64 | 1013.2 |
| 20260905152359 | 90 | 285 | 0.0 | 0.0 | 0.00 | 0.00 | 0.00 | 65 | 1013.1 |
| 20260905152258 | 90 | 285 | 0.0 | 0.0 | 0.00 | 0.00 | 0.00 | 64 | 1013.2 |
| 20260905152059 | 90 | 284 | 0.0 | 0.0 | 0.00 | 0.00 | 0.00 | 67 | 1013.2 |
| 20260905151958 | 90 | 259 | 0.0 | 0.0 | 0.00 | 0.00 | 0.00 | 64 | 1013.1 |
| 20260905151758 | 90 | 253 | 0.0 | 0.0 | 0.00 | 0.00 | 0.00 | 65 | 1013.1 |
| 20260905151659 | 89 | 325 | 0.0 | 0.0 | 0.00 | 0.00 | 0.00 | 67 | 1013.2 |
| 20260905151558 | 89 | 259 | 0.0 | 0.0 | 0.00 | 0.00 | 0.00 | 65 | 1013.1 |
| 20260905151458 | 89 | 262 | 0.0 | 0.0 | 0.00 | 0.00 | 0.00 | 65 | 1013.2 |
| 20260905151358 | 89 | 252 | 0.0 | 0.0 | 0.00 | 0.00 | 0.00 | 64 | 1013.1 |
| 20260905151258 | 89 | 250 | 0.0 | 0.0 | 0.00 | 0.00 | 0.00 | 64 | 1013.1 |
| 20260905151158 | 89 | 245 | 0.0 | 0.0 | 0.00 | 0.00 | 0.00 | 65 | 1013.2 |
| 20260905151057 | 89 | 256 | 0.0 | 0.0 | 0.00 | 0.00 | 0.00 | 64 | 1013.2 |
| 20260905150958 | 89 | 240 | 0.0 | 0.0 | 0.00 | 0.00 | 0.00 | 65 | 1013.1 |
| 20260905150858 | 89 | 243 | 0.0 | 0.0 | 0.00 | 0.00 | 0.00 | 64 | 1013.2 |
| 20260905150759 | 89 | 273 | 0.0 | 0.0 | 0.00 | 0.00 | 0.00 | 64 | 1013.2 |
| 20260905150659 | 89 | 252 | 0.0 | 0.0 | 0.00 | 0.00 | 0.00 | 66 | 1013.2 |
| 20260905150603 | 89 | 252 | 0.0 | 0.0 | 0.00 | 0.00 | 0.00 | 66 | 1013.2 |
| 20260905150500 | 89 | 279 | 0.0 | 0.0 | 0.00 | 0.00 | 0.00 | 65 | 1013.1 |
| 20260905150359 | 89 | 279 | 0.0 | 0.0 | 0.00 | 0.00 | 0.00 | 66 | 1013.1 |
| 20260905150259 | 89 | 322 | 0.0 | 0.0 | 0.00 | 0.00 | 0.00 | 69 | 1013.1 |
| 20260905150159 | 89 | 332 | 0.0 | 0.0 | 0.00 | 0.00 | 0.00 | 66 | 1013.1 |
| 20260905150058 | 88 | 283 | 0.0 | 0.0 | 0.00 | 0.00 | 0.00 | 67 | 1013.2 |
| 20260905145959 | 88 | 281 | 0.0 | 0.0 | 0.00 | 0.00 | 0.00 | 68 | 1013.2 |
| 20260905145858 | 88 | 281 | 0.0 | 0.0 | 0.00 | 0.00 | 0.00 | 68 | 1013.2 |
| 20260905145759 | 88 | 340 | 0.0 | 0.0 | 0.00 | 0.00 | 0.00 | 69 | 1013.2 |
| 20260905145659 | 88 | 342 | 0.0 | 0.0 | 0.00 | 0.00 | 0.00 | 68 | 1013.3 |
| 20260905145558 | 88 | 273 | 0.0 | 0.0 | 0.00 | 0.00 | 0.00 | 69 | 1013.1 |
| 20260905145359 | 87 | 277 | 0.0 | 0.0 | 0.00 | 0.00 | 0.00 | 69 | 1013.1 |
| 20260905145258 | 87 | 270 | 0.0 | 0.0 | 0.00 | 0.00 | 0.00 | 70 | 1013.1 |
| 20260905145158 | 87 | 340 | 0.0 | 0.0 | 0.00 | 0.00 | 0.00 | 68 | 1013.1 |
| 20260905145058 | 87 | 340 | 0.0 | 0.0 | 0.00 | 0.00 | 0.00 | 68 | 1013.1 |
| 20260905144958 | 87 | 335 | 0.0 | 0.0 | 0.00 | 0.00 | 0.00 | 69 | 1013.1 |
| 20260905144859 | 87 | 275 | 0.0 | 0.0 | 0.00 | 0.00 | 0.00 | 69 | 1013.1 |
| 20260905144759 | 87 | 271 | 0.0 | 0.0 | 0.00 | 0.00 | 0.00 | 69 | 1013.1 |
| 20260905144700 | 87 | 271 | 0.0 | 0.0 | 0.00 | 0.00 | 0.00 | 69 | 1013.2 |
| 20260905144559 | 87 | 257 | 0.0 | 0.0 | 0.00 | 0.00 | 0.00 | 69 | 1012.2 |
| 20260905144500 | 87 | 326 | 0.0 | 0.0 | 0.00 | 0.00 | 0.00 | 70 | 1013.2 |
| 20260905144359 | 87 | 333 | 0.0 | 0.0 | 0.00 | 0.00 | 0.00 | 71 | 1013.2 |
| 20260905144259 | 87 | 340 | 0.0 | 0.0 | 0.00 | 0.00 | 0.00 | 71 | 1013.1 |
| 20260905144058 | 86 | 256 | 0.0 | 0.0 | 0.00 | 0.00 | 0.00 | 70 | 1013.1 |
| 20260905143957 | 86 | 263 | 0.0 | 0.0 | 0.00 | 0.00 | 0.00 | 70 | 1013.0 |
| 20260905143858 | 86 | 252 | 0.0 | 0.9 | 0.00 | 0.00 | 0.00 | 71 | 1013.2 |
| 20260905143658 | 86 | 270 | 0.0 | 0.9 | 0.00 | 0.00 | 0.00 | 70 | 1013.1 |
| 20260905143557 | 86 | 262 | 0.0 | 0.9 | 0.00 | 0.00 | 0.00 | 70 | 1013.1 |
| 20260905143458 | 86 | 263 | 0.0 | 0.9 | 0.00 | 0.00 | 0.00 | 69 | 1013.2 |
| 20260905143259 | 86 | 277 | 0.0 | 0.9 | 0.00 | 0.00 | 0.00 | 71 | 1013.2 |
| 20260905143159 | 86 | 248 | 0.0 | 0.9 | 0.00 | 0.00 | 0.00 | 70 | 1013.2 |
| 20260905143059 | 86 | 243 | 0.0 | 0.9 | 0.00 | 0.00 | 0.00 | 72 | 1012.2 |
| 20260905142958 | 86 | 264 | 0.0 | 0.0 | 0.00 | 0.00 | 0.00 | 72 | 1013.1 |
| 20260905142858 | 86 | 260 | 0.0 | 0.0 | 0.00 | 0.00 | 0.00 | 71 | 1013.1 |
| 20260905142759 | 86 | 259 | 0.0 | 0.0 | 0.00 | 0.00 | 0.00 | 71 | 1013.1 |
| 20260905142659 | 85 | 271 | 0.0 | 0.0 | 0.00 | 0.00 | 0.00 | 72 | 1013.2 |
| 20260905142558 | 85 | 271 | 0.0 | 0.0 | 0.00 | 0.00 | 0.00 | 72 | 1013.1 |
| 20260905142458 | 85 | 271 | 0.0 | 0.0 | 0.00 | 0.00 | 0.00 | 73 | 1013.1 |
| 20260905142359 | 85 | 260 | 0.0 | 0.0 | 0.00 | 0.00 | 0.00 | 73 | 1013.1 |
| 20260905142158 | 85 | 266 | 0.0 | 0.0 | 0.00 | 0.00 | 0.00 | 73 | 1013.1 |
| 20260905141958 | 85 | 260 | 0.0 | 0.0 | 0.00 | 0.00 | 0.00 | 73 | 1013.1 |
| 20260905141859 | 85 | 242 | 0.0 | 0.0 | 0.00 | 0.00 | 0.00 | 73 | 1013.1 |
| 20260905141759 | 85 | 243 | 0.0 | 0.0 | 0.00 | 0.00 | 0.00 | 73 | 1013.1 |
| 20260905141658 | 85 | 284 | 0.0 | 0.0 | 0.00 | 0.00 | 0.00 | 73 | 1013.0 |
| 20260905141612 | 84 | 283 | 0.0 | 0.0 | 0.00 | 0.00 | 0.00 | 74 | 1012.1 |
| 20260905141458 | 84 | 309 | 0.0 | 0.0 | 0.00 | 0.00 | 0.00 | 74 | 1013.0 |
| 20260905141358 | 84 | 281 | 0.0 | 0.0 | 0.00 | 0.00 | 0.00 | 74 | 1013.0 |
| 20260905141258 | 84 | 269 | 0.0 | 0.0 | 0.00 | 0.00 | 0.00 | 73 | 1013.0 |
| 20260905141159 | 84 | 273 | 0.0 | 0.0 | 0.00 | 0.00 | 0.00 | 74 | 1013.0 |
| 20260905140958 | 84 | 257 | 0.0 | 0.0 | 0.00 | 0.00 | 0.00 | 74 | 1013.0 |
| 20260905140859 | 84 | 257 | 0.0 | 0.0 | 0.00 | 0.00 | 0.00 | 75 | 1012.9 |
| 20260905140757 | 84 | 257 | 0.0 | 0.0 | 0.00 | 0.00 | 0.00 | 75 | 1013.1 |
| 20260905140658 | 84 | 257 | 0.0 | 0.0 | 0.00 | 0.00 | 0.00 | 75 | 1013.0 |
| 20260905140557 | 84 | 257 | 0.0 | 0.0 | 0.00 | 0.00 | 0.00 | 75 | 1013.0 |
| 20260905140358 | 84 | 255 | 0.0 | 0.0 | 0.00 | 0.00 | 0.00 | 75 | 1013.0 |
| 20260905140258 | 84 | 250 | 0.0 | 0.0 | 0.00 | 0.00 | 0.00 | 75 | 1013.0 |
| 20260905140104 | 84 | 323 | 0.0 | 0.0 | 0.00 | 0.00 | 0.00 | 74 | 1011.9 |
| 20260905140059 | 84 | 323 | 0.0 | 0.0 | 0.00 | 0.00 | 0.00 | 74 | 1012.8 |
| 20260905140000 | 84 | 323 | 0.0 | 0.0 | 0.00 | 0.00 | 0.00 | 74 | 1012.8 |
| 20260905135858 | 83 | 326 | 0.0 | 0.0 | 0.00 | 0.00 | 0.00 | 75 | 1012.8 |
| 20260905135758 | 83 | 259 | 0.0 | 0.0 | 0.00 | 0.00 | 0.00 | 74 | 1012.9 |
| 20260905135658 | 83 | 257 | 0.0 | 0.0 | 0.00 | 0.00 | 0.00 | 75 | 1013.0 |
| 20260905135558 | 83 | 257 | 0.0 | 0.0 | 0.00 | 0.00 | 0.00 | 75 | 1012.9 |
| 20260905135458 | 83 | 271 | 0.0 | 0.0 | 0.00 | 0.00 | 0.00 | 75 | 1012.9 |
| 20260905135359 | 83 | 265 | 0.0 | 0.0 | 0.00 | 0.00 | 0.00 | 75 | 1012.9 |
| 20260905135158 | 83 | 243 | 0.0 | 0.0 | 0.00 | 0.00 | 0.00 | 76 | 1012.9 |
| 20260905135058 | 83 | 250 | 0.0 | 0.0 | 0.00 | 0.00 | 0.00 | 76 | 1012.9 |
| 20260905134957 | 82 | 249 | 0.0 | 0.0 | 0.00 | 0.00 | 0.00 | 76 | 1012.9 |
| 20260905134858 | 82 | 252 | 0.0 | 0.0 | 0.00 | 0.00 | 0.00 | 76 | 1012.9 |
| 20260905134758 | 82 | 252 | 0.0 | 0.0 | 0.00 | 0.00 | 0.00 | 77 | 1012.9 |
| 20260905134658 | 82 | 269 | 0.0 | 0.0 | 0.00 | 0.00 | 0.00 | 78 | 1012.8 |
| 20260905134607 | 82 | 267 | 0.0 | 0.0 | 0.00 | 0.00 | 0.00 | 78 | 1012.0 |
| 20260905134558 | 82 | 267 | 0.0 | 0.0 | 0.00 | 0.00 | 0.00 | 78 | 1012.9 |
| 20260905134500 | 82 | 269 | 0.0 | 0.0 | 0.00 | 0.00 | 0.00 | 78 | 1012.8 |
| 20260905134358 | 82 | 269 | 0.0 | 0.0 | 0.00 | 0.00 | 0.00 | 78 | 1012.8 |
| 20260905134259 | 82 | 269 | 0.0 | 0.0 | 0.00 | 0.00 | 0.00 | 78 | 1012.8 |
| 20260905134159 | 82 | 266 | 0.0 | 0.0 | 0.00 | 0.00 | 0.00 | 78 | 1012.8 |
| 20260905134059 | 81 | 280 | 0.0 | 0.0 | 0.00 | 0.00 | 0.00 | 78 | 1012.8 |
| 20260905133958 | 81 | 281 | 0.0 | 0.0 | 0.00 | 0.00 | 0.00 | 79 | 1012.8 |
| 20260905133858 | 81 | 280 | 0.0 | 0.0 | 0.00 | 0.00 | 0.00 | 80 | 1012.8 |
| 20260905133659 | 81 | 278 | 0.0 | 0.0 | 0.00 | 0.00 | 0.00 | 79 | 1012.8 |
| 20260905133559 | 81 | 278 | 0.0 | 0.0 | 0.00 | 0.00 | 0.00 | 80 | 1012.8 |
| 20260905133458 | 81 | 287 | 0.0 | 0.0 | 0.00 | 0.00 | 0.00 | 81 | 1012.8 |
| 20260905133358 | 81 | 288 | 0.0 | 0.0 | 0.00 | 0.00 | 0.00 | 81 | 1013.0 |
| 20260905133301 | 81 | 288 | 0.0 | 0.0 | 0.00 | 0.00 | 0.00 | 81 | 1012.9 |
| 20260905133200 | 81 | 288 | 0.0 | 0.0 | 0.00 | 0.00 | 0.00 | 81 | 1013.0 |
| 20260905133059 | 81 | 288 | 0.0 | 0.0 | 0.00 | 0.00 | 0.00 | 81 | 1012.0 |
| 20260905132959 | 80 | 288 | 0.0 | 0.0 | 0.00 | 0.00 | 0.00 | 81 | 1012.9 |
| 20260905132858 | 80 | 288 | 0.0 | 0.0 | 0.00 | 0.00 | 0.00 | 82 | 1012.9 |
| 20260905132658 | 80 | 288 | 0.0 | 0.0 | 0.00 | 0.00 | 0.00 | 82 | 1012.8 |
| 20260905132558 | 80 | 288 | 0.0 | 0.0 | 0.00 | 0.00 | 0.00 | 82 | 1012.8 |
| 20260905132459 | 80 | 288 | 0.0 | 0.0 | 0.00 | 0.00 | 0.00 | 82 | 1012.9 |
| 20260905132359 | 80 | 283 | 0.0 | 0.0 | 0.00 | 0.00 | 0.00 | 82 | 1012.9 |
| 20260905132258 | 80 | 283 | 0.0 | 0.0 | 0.00 | 0.00 | 0.00 | 82 | 1012.9 |
| 20260905132158 | 80 | 285 | 0.0 | 0.0 | 0.00 | 0.00 | 0.00 | 82 | 1012.9 |
| 20260905132058 | 80 | 286 | 0.0 | 0.0 | 0.00 | 0.00 | 0.00 | 83 | 1012.9 |
| 20260905131958 | 80 | 287 | 0.0 | 0.0 | 0.00 | 0.00 | 0.00 | 83 | 1012.8 |
| 20260905131858 | 80 | 287 | 0.0 | 0.0 | 0.00 | 0.00 | 0.00 | 83 | 1012.9 |
| 20260905131759 | 80 | 286 | 0.0 | 0.0 | 0.00 | 0.00 | 0.00 | 82 | 1012.8 |
| 20260905131658 | 79 | 266 | 0.0 | 0.0 | 0.00 | 0.00 | 0.00 | 83 | 1012.8 |
| 20260905131601 | 79 | 252 | 0.0 | 0.0 | 0.00 | 0.00 | 0.00 | 84 | 1011.8 |
| 20260905131559 | 79 | 252 | 0.0 | 0.0 | 0.00 | 0.00 | 0.00 | 84 | 1012.8 |
| 20260905131457 | 79 | 252 | 0.0 | 0.0 | 0.00 | 0.00 | 0.00 | 83 | 1012.7 |
| 20260905131358 | 79 | 257 | 0.0 | 0.0 | 0.00 | 0.00 | 0.00 | 84 | 1012.7 |
| 20260905131257 | 79 | 257 | 0.0 | 0.0 | 0.00 | 0.00 | 0.00 | 84 | 1012.8 |
| 20260905131158 | 79 | 257 | 0.0 | 0.0 | 0.00 | 0.00 | 0.00 | 84 | 1012.8 |
| 20260905130957 | 79 | 252 | 0.0 | 0.0 | 0.00 | 0.00 | 0.00 | 84 | 1012.9 |
| 20260905130858 | 79 | 252 | 0.0 | 0.0 | 0.00 | 0.00 | 0.00 | 84 | 1012.8 |
| 20260905130758 | 79 | 253 | 0.0 | 0.0 | 0.00 | 0.00 | 0.00 | 85 | 1012.8 |
| 20260905130359 | 79 | 253 | 0.0 | 0.0 | 0.00 | 0.00 | 0.00 | 85 | 1012.9 |
| 20260905130258 | 79 | 253 | 0.0 | 0.0 | 0.00 | 0.00 | 0.00 | 85 | 1012.9 |
| 20260905130159 | 79 | 253 | 0.0 | 0.0 | 0.00 | 0.00 | 0.00 | 85 | 1013.0 |
| 20260905130100 | 79 | 250 | 0.0 | 0.0 | 0.00 | 0.00 | 0.00 | 85 | 1012.0 |
| 20260905130057 | 79 | 250 | 0.0 | 0.0 | 0.00 | 0.00 | 0.00 | 85 | 1013.0 |
| 20260905130000 | 78 | 247 | 0.0 | 0.0 | 0.00 | 0.00 | 0.00 | 85 | 1013.0 |
| 20260905125859 | 78 | 246 | 0.0 | 0.0 | 0.00 | 0.00 | 0.00 | 85 | 1013.0 |
| 20260905125758 | 78 | 252 | 0.0 | 0.0 | 0.00 | 0.00 | 0.00 | 86 | 1013.0 |